Latitude: N 50° 09' 49" Longitude: W 05° 11' 53" Elevation: 168m ASL

There are 23 visitors online

Adverts

<- Previous Day | Today | Next Day ->

All Data for 12 October 2017

Time
A - D
Temp
A - D
Dew Point
A - D
Humidity
A - D
Pressure
A - D
Wind
A - D
Wind Dir Gust
A - D
Rain Rate
A - D
Rain Total
00:01 10.5 10.4 99 1016.9 3.8 W 4.5 0.0 0.0
00:01 10.5 10.4 99 1016.9 3.8 W 4.5 0.0 0.0
00:02 10.5 10.4 99 1016.8 3.8 W 4.5 0.0 0.0
00:04 10.5 10.4 99 1017.0 3.8 W 4.5 0.0 0.0
00:04 10.5 10.4 99 1017.0 3.8 W 4.5 0.0 0.0
00:05 10.5 10.4 99 1016.9 3.1 W 3.8 0.0 0.0
00:07 10.4 10.3 99 1017.0 3.8 W 3.8 0.0 0.0
00:07 10.4 10.3 99 1017.0 3.8 W 3.8 0.0 0.0
00:08 10.4 10.3 99 1016.9 3.8 WSW 3.8 0.0 0.0
00:09 10.4 10.3 99 1016.7 3.8 WSW 3.8 0.0 0.0
00:10 10.4 10.3 99 1016.8 3.1 WSW 3.8 0.0 0.0
00:11 10.4 10.3 99 1016.9 2.2 WSW 3.8 0.0 0.0
00:12 10.4 10.3 99 1016.7 3.8 WSW 3.8 0.0 0.0
00:13 10.3 10.2 99 1016.7 3.8 WSW 3.8 0.0 0.0
00:14 10.3 10.2 99 1016.8 3.1 WSW 3.8 0.0 0.0
00:15 10.3 10.2 99 1016.9 3.8 WSW 3.8 0.0 0.0
00:16 10.3 10.2 99 1016.8 4.5 WSW 4.5 0.0 0.0
00:18 10.3 10.2 99 1016.8 4.5 WSW 5.4 0.0 0.0
00:19 10.3 10.2 99 1016.8 3.8 W 5.4 0.0 0.0
00:20 10.3 10.2 99 1017.0 3.1 WSW 5.4 0.0 0.0
00:21 10.3 10.2 99 1017.0 3.1 W 5.4 0.0 0.0
00:22 10.3 10.2 99 1017.3 3.8 W 5.4 0.0 0.0
00:23 10.3 10.2 99 1017.2 3.1 W 5.4 0.0 0.0
00:24 10.3 10.2 99 1017.1 4.5 W 5.4 0.0 0.0
00:25 10.2 10.1 99 1017.2 3.8 W 5.4 0.0 0.0
00:26 10.3 10.2 99 1017.2 3.8 WSW 5.4 0.0 0.0
00:27 10.3 10.2 99 1017.2 3.8 W 5.4 0.0 0.0
00:28 10.3 10.2 99 1017.2 3.1 W 4.5 0.0 0.0
00:29 10.3 10.2 99 1017.1 3.8 W 4.5 0.0 0.0
00:30 10.3 10.2 99 1017.1 3.8 W 4.5 0.0 0.0
00:31 10.2 10.1 99 1017.2 5.4 W 5.4 0.0 0.0
00:32 10.3 10.2 99 1017.2 4.5 W 5.4 0.0 0.0
00:33 10.2 10.1 99 1017.0 5.4 WSW 5.4 0.0 0.0
00:34 10.2 10.1 99 1017.2 5.4 W 5.4 0.0 0.0
00:35 10.2 10.1 99 1017.1 4.5 W 5.4 0.0 0.0
00:35 10.2 10.1 99 1017.1 4.5 W 5.4 0.0 0.0
00:36 10.2 10.1 99 1017.1 5.4 W 5.4 0.0 0.0
00:37 10.2 10.1 99 1017.1 5.4 W 5.4 0.0 0.0
00:38 10.2 10.1 99 1017.1 6.0 W 6.0 0.0 0.0
00:39 10.3 10.2 99 1017.0 4.5 WSW 6.0 0.0 0.0
00:40 10.2 10.1 99 1017.0 4.5 W 6.0 0.0 0.0
00:41 10.2 10.1 99 1017.2 6.0 WSW 6.0 0.0 0.0
00:42 10.2 10.1 99 1017.2 3.1 W 6.0 0.0 0.0
00:43 10.2 10.1 99 1017.2 3.8 S 6.0 0.0 0.0
00:44 10.2 10.1 99 1017.1 5.4 W 6.0 0.0 0.0
00:45 10.2 10.1 99 1017.2 5.4 WSW 6.0 0.0 0.0
00:46 10.2 10.1 99 1017.1 4.5 WSW 6.0 0.0 0.0
00:47 10.2 10.1 99 1017.2 5.4 WSW 6.0 0.0 0.0
00:48 10.2 10.1 99 1017.3 4.5 WSW 6.0 0.0 0.0
00:50 10.2 10.1 99 1017.2 4.5 WSW 6.0 0.0 0.0
00:51 10.3 10.2 99 1017.4 4.5 WSW 6.0 0.0 0.0
00:52 10.2 10.1 99 1017.3 3.8 W 5.4 0.0 0.0
00:53 10.3 10.2 99 1017.4 4.5 W 5.4 0.0 0.0
00:54 10.3 10.2 99 1017.3 4.5 WSW 5.4 0.0 0.0
00:55 10.3 10.2 99 1017.4 3.8 WSW 5.4 0.0 0.0
00:56 10.3 10.2 99 1017.3 3.8 WSW 5.4 0.0 0.0
00:57 10.3 10.2 99 1017.3 4.5 W 5.4 0.0 0.0
00:58 10.3 10.2 99 1017.2 3.8 W 4.5 0.0 0.0
00:59 10.3 10.2 99 1017.3 3.8 WSW 4.5 0.0 0.0
01:00 10.2 10.1 99 1017.2 3.8 WSW 4.5 0.0 0.0
01:01 10.2 10.1 99 1017.3 3.8 WSW 4.5 0.0 0.0
01:02 10.2 10.1 99 1017.2 3.8 WSW 4.5 0.0 0.0
01:03 10.2 10.1 99 1017.2 3.8 WSW 4.5 0.0 0.0
01:04 10.2 10.1 99 1017.3 3.8 WSW 4.5 0.0 0.0
01:04 10.2 10.1 99 1017.3 3.8 WSW 4.5 0.0 0.0
01:05 10.2 10.1 99 1017.2 3.8 NW 4.5 0.0 0.0
01:07 10.2 10.1 99 1017.3 5.4 WSW 5.4 0.0 0.0
01:07 10.2 10.1 99 1017.3 5.4 WSW 5.4 0.0 0.0
01:08 10.2 10.1 99 1017.4 3.8 WSW 5.4 0.0 0.0
01:10 10.1 10.0 99 1017.5 3.1 W 5.4 0.0 0.0
01:10 10.1 10.0 99 1017.5 3.1 W 5.4 0.0 0.0
01:12 10.2 10.1 99 1017.4 3.8 W 5.4 0.0 0.0
01:13 10.1 10.0 99 1017.5 3.1 W 5.4 0.0 0.0
01:14 10.1 10.0 99 1017.5 3.1 W 5.4 0.0 0.0
01:15 10.1 10.0 99 1017.4 2.2 W 5.4 0.0 0.0
01:16 10.1 10.0 99 1017.5 3.1 W 5.4 0.0 0.0
01:17 10.1 10.0 99 1017.5 2.2 W 5.4 0.0 0.0
01:18 10.1 10.0 99 1017.6 3.1 WSW 4.5 0.0 0.0
01:19 10.1 10.0 99 1017.7 3.1 WSW 4.5 0.0 0.0
01:20 10.1 10.0 99 1017.6 3.1 W 4.5 0.0 0.0
01:21 10.1 10.0 99 1017.6 3.1 W 4.5 0.0 0.0
01:22 10.1 10.0 99 1017.6 3.1 W 3.1 0.0 0.0
01:23 10.1 10.0 99 1017.7 3.1 W 3.1 0.0 0.0
01:24 10.1 10.0 99 1017.5 3.1 W 3.1 0.0 0.0
01:25 10.0 9.9 99 1017.5 3.1 W 3.1 0.0 0.0
01:26 10.0 9.9 99 1017.6 3.8 W 3.8 0.0 0.0
01:27 10.0 9.9 99 1017.6 3.8 W 3.8 0.0 0.0
01:27 10.0 9.9 99 1017.6 3.8 W 3.8 0.0 0.0
01:28 10.0 9.9 99 1017.6 3.8 W 3.8 0.0 0.0
01:29 10.0 9.9 99 1017.5 5.4 WSW 5.4 0.0 0.0
01:30 10.0 9.9 99 1017.7 4.5 WSW 5.4 0.0 0.0
01:31 10.0 9.9 99 1017.5 3.1 WSW 5.4 0.0 0.0
01:32 9.9 9.8 99 1017.5 3.1 WSW 5.4 0.0 0.0
01:33 9.9 9.8 99 1017.5 3.1 WSW 5.4 0.0 0.0
01:34 9.9 9.8 99 1017.6 3.1 WSW 5.4 0.0 0.0
01:35 9.8 9.7 99 1017.4 2.2 WSW 5.4 0.0 0.0
01:36 9.8 9.7 99 1017.6 2.2 WSW 5.4 0.0 0.0
01:37 9.8 9.7 99 1017.6 1.6 WSW 5.4 0.0 0.0
01:39 9.8 9.7 99 1017.7 1.6 WSW 5.4 0.0 0.0
01:40 9.7 9.6 99 1017.7 1.6 WSW 4.5 0.0 0.0
01:41 9.7 9.6 99 1017.6 0.7 WSW 4.5 0.0 0.0
01:42 9.7 9.6 99 1017.6 0.0 WSW 3.1 0.0 0.0
01:43 9.7 9.6 99 1017.7 2.2 WSW 3.1 0.0 0.0
01:44 9.7 9.6 99 1017.7 1.6 WSW 3.1 0.0 0.0
01:45 9.6 9.5 99 1017.7 2.2 WSW 2.2 0.0 0.0
01:46 9.6 9.5 99 1017.7 3.1 WSW 3.1 0.0 0.0
01:47 9.6 9.5 99 1017.9 3.8 WSW 3.8 0.0 0.0
01:48 9.6 9.5 99 1017.6 3.1 WSW 3.8 0.0 0.0
01:49 9.6 9.5 99 1017.8 3.1 WSW 3.8 0.0 0.0
01:50 9.6 9.5 99 1017.7 3.8 WSW 3.8 0.0 0.0
01:51 9.6 9.5 99 1017.7 3.8 WSW 3.8 0.0 0.0
01:52 9.6 9.5 99 1017.6 3.8 WSW 3.8 0.0 0.0
01:53 9.6 9.5 99 1017.7 3.1 W 4.5 0.0 0.0
01:54 9.5 9.4 99 1017.7 3.1 W 4.5 0.0 0.0
01:54 9.5 9.4 99 1017.7 3.1 W 4.5 0.0 0.0
01:55 9.5 9.4 99 1017.7 3.1 W 4.5 0.0 0.0
01:56 9.5 9.4 99 1017.7 3.1 W 4.5 0.0 0.0
01:57 9.4 9.3 99 1017.7 2.2 W 4.5 0.0 0.0
01:58 9.4 9.3 99 1017.6 2.2 W 4.5 0.0 0.0
01:59 9.4 9.3 99 1017.6 3.1 W 4.5 0.0 0.0
02:00 9.4 9.3 99 1017.7 3.1 W 4.5 0.0 0.0
02:01 9.4 9.3 99 1017.7 3.1 W 4.5 0.0 0.0
02:02 9.4 9.3 99 1017.7 3.1 W 4.5 0.0 0.0
02:03 9.4 9.3 99 1017.7 3.1 W 3.1 0.0 0.0
02:05 9.3 9.2 99 1017.7 2.2 W 3.1 0.0 0.0
02:06 9.3 9.2 99 1017.6 3.1 W 3.1 0.0 0.0
02:06 9.3 9.2 99 1017.6 3.1 W 3.1 0.0 0.0
02:07 9.3 9.2 99 1017.7 3.1 S 3.8 0.0 0.0
02:08 9.3 9.2 99 1017.7 4.5 WSW 4.5 0.0 0.0
02:09 9.3 9.2 99 1017.6 3.8 WSW 4.5 0.0 0.0
02:10 9.3 9.2 99 1017.7 3.1 WSW 4.5 0.0 0.0
02:11 9.3 9.2 99 1017.7 3.1 WSW 4.5 0.0 0.0
02:12 9.3 9.2 99 1017.9 3.8 WSW 4.5 0.0 0.0
02:13 9.3 9.2 99 1017.8 4.5 WSW 4.5 0.0 0.0
02:14 9.4 9.3 99 1017.7 3.8 WSW 4.5 0.0 0.0
02:15 9.4 9.3 99 1017.8 3.1 WSW 4.5 0.0 0.0
02:17 9.4 9.3 99 1017.8 4.5 WSW 4.5 0.0 0.0
02:18 9.4 9.3 99 1018.0 3.1 WSW 4.5 0.0 0.0
02:19 9.4 9.3 99 1017.8 3.1 WSW 4.5 0.0 0.0
02:20 9.5 9.4 99 1017.8 3.8 WSW 4.5 0.0 0.0
02:21 9.5 9.4 99 1017.9 3.1 WSW 4.5 0.0 0.0
02:22 9.5 9.4 99 1017.8 3.8 WSW 4.5 0.0 0.0
02:23 9.5 9.4 99 1017.8 5.4 WSW 5.4 0.0 0.0
02:24 9.5 9.4 99 1017.9 5.4 WSW 5.4 0.0 0.0
02:25 9.6 9.5 99 1017.9 5.4 W 6.0 0.0 0.0
02:26 9.6 9.5 99 1017.9 6.9 WSW 6.9 0.0 0.0
02:27 9.7 9.6 99 1018.0 5.4 W 6.9 0.0 0.0
02:27 9.7 9.6 99 1018.0 5.4 W 6.9 0.0 0.0
02:28 9.7 9.6 99 1017.9 4.5 W 6.9 0.0 0.0
02:29 9.7 9.6 99 1017.9 5.4 W 6.9 0.0 0.0
02:30 9.7 9.6 99 1017.8 4.5 W 6.9 0.0 0.0
02:31 9.7 9.6 99 1018.1 4.5 N 6.9 0.0 0.0
02:32 9.7 9.6 99 1018.1 3.8 W 6.9 0.0 0.0
02:33 9.7 9.6 99 1018.1 3.8 WSW 6.9 0.0 0.0
02:34 9.7 9.6 99 1018.1 4.5 WSW 6.9 0.0 0.0
02:35 9.7 9.6 99 1018.2 5.4 W 6.9 0.0 0.0
02:37 9.8 9.7 99 1018.1 6.9 WSW 6.9 0.0 0.0
02:38 9.8 9.7 99 1018.2 3.8 WSW 6.9 0.0 0.0
02:39 9.8 9.7 99 1018.3 3.8 W 6.9 0.0 0.0
02:40 9.8 9.7 99 1018.3 3.1 W 6.9 0.0 0.0
02:41 9.8 9.7 99 1018.2 2.2 W 6.9 0.0 0.0
02:42 9.8 9.7 99 1018.3 3.1 W 6.9 0.0 0.0
02:43 9.8 9.7 99 1018.3 2.2 W 6.9 0.0 0.0
02:44 9.8 9.7 99 1018.4 3.1 W 6.9 0.0 0.0
02:45 9.8 9.7 99 1018.2 2.2 W 6.9 0.0 0.0
02:46 9.8 9.7 99 1018.5 2.2 W 6.9 0.0 0.0
02:47 9.8 9.7 99 1018.2 2.2 W 6.9 0.0 0.0
02:48 9.7 9.6 99 1018.3 1.6 W 3.8 0.0 0.0
02:49 9.7 9.6 99 1018.3 1.6 W 3.8 0.0 0.0
02:49 9.7 9.6 99 1018.3 1.6 W 3.8 0.0 0.0
02:50 9.7 9.6 99 1018.2 1.6 W 3.8 0.0 0.0
02:51 9.6 9.5 99 1018.1 3.1 W 3.1 0.0 0.0
02:52 9.6 9.5 99 1018.1 3.1 W 3.1 0.0 0.0
02:53 9.6 9.5 99 1018.2 1.6 W 3.1 0.0 0.0
02:54 9.6 9.5 99 1018.1 1.6 W 3.1 0.0 0.0
02:55 9.5 9.4 99 1018.2 1.6 W 3.1 0.0 0.0
02:56 9.5 9.4 99 1018.1 0.7 W 3.1 0.0 0.0
02:58 9.5 9.4 99 1018.3 0.0 W 3.1 0.0 0.0
02:59 9.5 9.4 99 1018.2 0.0 W 3.1 0.0 0.0
03:00 9.4 9.3 99 1018.1 0.7 W 3.1 0.0 0.0
03:01 9.4 9.3 99 1018.1 0.7 W 3.1 0.0 0.0
03:02 9.4 9.3 99 1018.2 0.7 W 3.1 0.0 0.0
03:03 9.4 9.3 99 1018.3 0.7 W 1.6 0.0 0.0
03:04 9.4 9.3 99 1018.2 0.7 W 1.6 0.0 0.0
03:05 9.4 9.3 99 1018.3 0.7 W 1.6 0.0 0.0
03:05 9.4 9.3 99 1018.3 0.7 W 1.6 0.0 0.0
03:07 9.4 9.3 99 1018.3 0.7 W 0.7 0.0 0.0
03:07 9.4 9.3 99 1018.3 0.7 W 0.7 0.0 0.0
03:09 9.3 9.2 99 1018.3 1.6 W 1.6 0.0 0.0
03:10 9.3 9.2 99 1018.4 1.6 W 1.6 0.0 0.0
03:11 9.2 9.1 99 1018.3 0.7 W 1.6 0.0 0.0
03:12 9.2 9.1 99 1018.4 1.6 W 1.6 0.0 0.0
03:13 9.2 9.1 99 1018.2 0.7 W 1.6 0.0 0.0
03:14 9.2 9.1 99 1018.3 0.7 W 1.6 0.0 0.0
03:15 9.1 9.0 99 1018.2 0.0 W 1.6 0.0 0.0
03:16 9.1 9.0 99 1018.2 0.0 W 1.6 0.0 0.0
03:17 9.1 9.0 99 1018.2 0.0 W 1.6 0.0 0.0
03:18 9.1 9.0 99 1018.2 0.0 W 1.6 0.0 0.0
03:19 9.0 8.9 99 1018.2 0.0 W 1.6 0.0 0.0
03:20 9.0 8.9 99 1018.2 0.0 W 1.6 0.0 0.0
03:21 9.0 8.9 99 1018.2 0.7 W 1.6 0.0 0.0
03:22 9.0 8.9 99 1018.1 1.6 W 1.6 0.0 0.0
03:23 8.9 8.8 99 1018.2 1.6 W 1.6 0.0 0.0
03:24 8.9 8.8 99 1018.1 0.7 W 1.6 0.0 0.0
03:25 8.9 8.8 99 1018.1 0.7 W 1.6 0.0 0.0
03:26 8.8 8.7 99 1018.1 0.7 W 1.6 0.0 0.0
03:26 8.8 8.7 99 1018.1 0.7 W 1.6 0.0 0.0
03:28 8.7 8.6 99 1018.1 1.6 W 1.6 0.0 0.0
03:29 8.7 8.6 99 1018.3 0.7 W 1.6 0.0 0.0
03:30 8.7 8.6 99 1018.2 0.7 W 1.6 0.0 0.0
03:31 8.6 8.5 99 1018.1 1.6 W 1.6 0.0 0.0
03:32 8.6 8.5 99 1018.1 2.2 W 2.2 0.0 0.0
03:33 8.6 8.5 99 1018.3 2.2 W 2.2 0.0 0.0
03:34 8.6 8.5 99 1018.2 2.2 W 2.2 0.0 0.0
03:35 8.6 8.5 99 1018.2 2.2 W 2.2 0.0 0.0
03:36 8.6 8.5 99 1018.1 2.2 W 2.2 0.0 0.0
03:37 8.6 8.5 99 1018.1 3.1 W 3.1 0.0 0.0
03:38 8.6 8.5 99 1018.2 2.2 W 3.1 0.0 0.0
03:39 8.6 8.5 99 1018.3 1.6 W 3.1 0.0 0.0
03:40 8.6 8.5 99 1018.3 1.6 W 3.1 0.0 0.0
03:40 8.6 8.5 99 1018.3 1.6 W 3.1 0.0 0.0
03:42 8.6 8.5 99 1018.2 0.0 W 3.1 0.0 0.0
03:43 8.7 8.6 99 1018.2 0.0 W 3.1 0.0 0.0
03:44 8.7 8.6 99 1018.1 0.0 W 3.1 0.0 0.0
03:45 8.7 8.6 99 1018.2 0.0 W 3.1 0.0 0.0
03:46 8.7 8.6 99 1018.2 0.0 W 3.1 0.0 0.0
03:47 8.7 8.6 99 1018.0 0.0 W 3.1 0.0 0.0
03:48 8.7 8.6 99 1018.2 0.0 W 2.2 0.0 0.0
03:49 8.7 8.6 99 1018.2 0.7 W 1.6 0.0 0.0
03:50 8.7 8.6 99 1018.1 1.6 W 1.6 0.0 0.0
03:51 8.7 8.6 99 1018.2 0.7 W 1.6 0.0 0.0
03:52 8.7 8.6 99 1018.1 0.7 W 1.6 0.0 0.0
03:53 8.7 8.6 99 1018.2 1.6 W 1.6 0.0 0.0
03:53 8.7 8.6 99 1018.2 1.6 W 1.6 0.0 0.0
03:55 8.7 8.6 99 1018.2 0.7 W 1.6 0.0 0.0
03:56 8.7 8.6 99 1018.1 0.7 W 1.6 0.0 0.0
03:57 8.7 8.6 99 1018.2 1.6 W 1.6 0.0 0.0
03:58 8.7 8.6 99 1018.2 0.7 W 1.6 0.0 0.0
03:59 8.8 8.7 99 1018.2 0.7 W 1.6 0.0 0.0
04:00 8.8 8.7 99 1018.3 0.7 W 1.6 0.0 0.0
04:01 8.8 8.7 99 1018.2 0.7 W 1.6 0.0 0.0
04:02 8.8 8.7 99 1018.2 0.7 W 1.6 0.0 0.0
04:03 8.8 8.7 99 1018.3 0.7 W 1.6 0.0 0.0
04:04 8.8 8.7 99 1018.1 0.7 W 1.6 0.0 0.0
04:05 8.8 8.7 99 1018.2 0.7 W 1.6 0.0 0.0
04:05 8.8 8.7 99 1018.2 0.7 W 1.6 0.0 0.0
04:07 8.8 8.7 99 1018.2 1.6 W 1.6 0.0 0.0
04:08 8.8 8.7 99 1018.3 1.6 W 1.6 0.0 0.0
04:08 8.8 8.7 99 1018.3 1.6 W 1.6 0.0 0.0
04:10 8.8 8.7 99 1018.1 1.6 W 1.6 0.0 0.0
04:11 8.8 8.7 99 1018.2 0.7 W 1.6 0.0 0.0
04:12 8.8 8.7 99 1018.2 0.7 W 1.6 0.0 0.0
04:13 8.9 8.8 99 1018.2 0.7 W 1.6 0.0 0.0
04:14 8.9 8.8 99 1018.2 0.7 W 1.6 0.0 0.0
04:15 8.9 8.8 99 1018.2 0.0 W 1.6 0.0 0.0
04:16 8.9 8.8 99 1018.2 0.0 W 1.6 0.0 0.0
04:17 8.9 8.8 99 1018.1 0.0 W 1.6 0.0 0.0
04:18 8.9 8.8 99 1018.2 0.0 W 1.6 0.0 0.0
04:19 8.9 8.8 99 1018.1 0.7 W 1.6 0.0 0.0
04:20 8.9 8.8 99 1018.2 0.0 W 0.7 0.0 0.0
04:21 8.9 8.8 99 1018.2 0.7 W 0.7 0.0 0.0
04:22 8.9 8.8 99 1018.1 0.7 W 0.7 0.0 0.0
04:23 8.9 8.8 99 1018.2 0.7 W 0.7 0.0 0.0
04:24 8.9 8.8 99 1018.2 0.7 W 0.7 0.0 0.0
04:25 8.9 8.8 99 1018.0 0.7 W 0.7 0.0 0.0
04:25 8.9 8.8 99 1018.0 0.7 W 0.7 0.0 0.0
04:27 8.9 8.8 99 1018.2 0.7 W 0.7 0.0 0.0
04:28 8.9 8.8 99 1018.2 1.6 W 1.6 0.0 0.0
04:29 8.9 8.8 99 1018.2 1.6 W 1.6 0.0 0.0
04:30 8.9 8.8 99 1018.2 1.6 W 1.6 0.0 0.0
04:31 8.9 8.8 99 1018.2 0.7 W 1.6 0.0 0.0
04:32 8.9 8.8 99 1018.3 0.7 W 1.6 0.0 0.0
04:33 8.9 8.8 99 1018.2 0.7 W 1.6 0.0 0.0
04:34 8.9 8.8 99 1018.2 0.7 W 1.6 0.0 0.0
04:35 8.9 8.8 99 1018.1 0.7 W 1.6 0.0 0.0
04:36 8.9 8.8 99 1018.1 0.7 W 1.6 0.0 0.0
04:37 8.9 8.8 99 1018.2 0.7 W 1.6 0.0 0.0
04:38 8.9 8.8 99 1018.3 1.6 W 1.6 0.0 0.0
04:39 8.9 8.8 99 1018.1 2.2 W 2.2 0.0 0.0
04:40 8.9 8.8 99 1018.3 1.6 W 2.2 0.0 0.0
04:41 8.9 8.8 99 1018.1 0.7 W 2.2 0.0 0.0
04:42 8.9 8.8 99 1018.3 0.7 W 2.2 0.0 0.0
04:43 8.9 8.8 99 1018.3 1.6 W 2.2 0.0 0.0
04:44 8.9 8.8 99 1018.2 0.7 W 2.2 0.0 0.0
04:45 8.9 8.8 99 1018.3 0.7 W 2.2 0.0 0.0
04:46 8.9 8.8 99 1018.4 0.7 W 2.2 0.0 0.0
04:46 8.9 8.8 99 1018.4 0.7 W 2.2 0.0 0.0
04:48 8.9 8.8 99 1018.2 1.6 W 2.2 0.0 0.0
04:49 8.9 8.8 99 1018.3 0.7 W 2.2 0.0 0.0
04:50 8.9 8.8 99 1018.2 0.7 W 1.6 0.0 0.0
04:51 8.9 8.8 99 1018.2 1.6 W 1.6 0.0 0.0
04:52 8.9 8.8 99 1018.2 0.7 W 1.6 0.0 0.0
04:53 8.9 8.8 99 1018.3 0.7 W 1.6 0.0 0.0
04:54 8.9 8.8 99 1018.3 1.6 W 1.6 0.0 0.0
04:55 8.9 8.8 99 1018.3 0.7 W 1.6 0.0 0.0
04:56 8.9 8.8 99 1018.2 0.7 W 1.6 0.0 0.0
04:57 8.9 8.8 99 1018.2 0.7 W 1.6 0.0 0.0
04:58 8.9 8.8 99 1018.3 0.7 W 1.6 0.0 0.0
04:59 8.9 8.8 99 1018.3 0.7 W 1.6 0.0 0.0
05:00 8.9 8.8 99 1018.2 0.7 W 1.6 0.0 0.0
05:01 8.9 8.8 99 1018.2 0.7 W 1.6 0.0 0.0
05:02 8.9 8.8 99 1018.2 0.7 W 1.6 0.0 0.0
05:03 8.9 8.8 99 1018.3 0.7 W 1.6 0.0 0.0
05:04 8.9 8.8 99 1018.4 0.7 W 0.7 0.0 0.0
05:05 8.9 8.8 99 1018.3 0.7 W 0.7 0.0 0.0
05:05 8.9 8.8 99 1018.3 0.7 W 0.7 0.0 0.0
05:07 8.9 8.8 99 1018.3 0.7 W 0.7 0.0 0.0
05:07 8.9 8.8 99 1018.3 0.7 W 0.7 0.0 0.0
05:09 9.0 8.9 99 1018.6 0.7 W 0.7 0.0 0.0
05:10 9.0 8.9 99 1018.3 0.0 W 0.7 0.0 0.0
05:11 9.0 8.9 99 1018.3 0.0 W 0.7 0.0 0.0
05:12 9.0 8.9 99 1018.4 0.7 W 0.7 0.0 0.0
05:13 9.0 8.9 99 1018.4 0.7 W 0.7 0.0 0.0
05:14 9.0 8.9 99 1018.5 0.7 W 0.7 0.0 0.0
05:15 9.0 8.9 99 1018.5 0.7 W 0.7 0.0 0.0
05:16 9.0 8.9 99 1018.4 0.0 W 0.7 0.0 0.0
05:17 9.0 8.9 99 1018.3 0.7 W 0.7 0.0 0.0
05:18 9.0 8.9 99 1018.4 0.7 W 0.7 0.0 0.0
05:19 9.0 8.9 99 1018.5 0.0 W 0.7 0.0 0.0
05:19 9.0 8.9 99 1018.5 0.0 W 0.7 0.0 0.0
05:21 8.9 8.8 99 1018.4 0.7 W 0.7 0.0 0.0
05:22 8.9 8.8 99 1018.4 0.7 W 0.7 0.0 0.0
05:23 8.9 8.8 99 1018.5 0.0 W 0.7 0.0 0.0
05:24 8.9 8.8 99 1018.6 0.0 W 0.7 0.0 0.0
05:25 8.9 8.8 99 1018.6 0.0 W 0.7 0.0 0.0
05:26 8.9 8.8 99 1018.6 0.0 W 0.7 0.0 0.0
05:27 8.9 8.8 99 1018.5 0.0 W 0.7 0.0 0.0
05:28 8.9 8.8 99 1018.6 1.6 W 1.6 0.0 0.0
05:29 8.9 8.8 99 1018.6 1.6 W 1.6 0.0 0.0
05:30 8.9 8.8 99 1018.4 2.2 NW 2.2 0.0 0.0
05:31 8.8 8.7 99 1018.7 1.6 NW 2.2 0.0 0.0
05:32 8.8 8.7 99 1018.5 0.7 NW 2.2 0.0 0.0
05:33 8.9 8.8 99 1018.5 0.7 NW 2.2 0.0 0.0
05:34 8.8 8.7 99 1018.7 1.6 NW 2.2 0.0 0.0
05:35 8.8 8.7 99 1018.6 1.6 NW 2.2 0.0 0.0
05:36 8.8 8.7 99 1018.7 1.6 NW 2.2 0.0 0.0
05:37 8.9 8.8 99 1018.6 0.7 NW 2.2 0.0 0.0
05:38 8.9 8.8 99 1018.6 0.7 NW 2.2 0.0 0.0
05:39 8.8 8.7 99 1018.8 1.6 NW 2.2 0.0 0.0
05:39 8.8 8.7 99 1018.8 1.6 NW 2.2 0.0 0.0
05:41 8.8 8.7 99 1018.7 0.7 NW 1.6 0.0 0.0
05:42 8.9 8.8 99 1018.7 1.6 NW 1.6 0.0 0.0
05:43 8.9 8.8 99 1018.8 0.7 NW 1.6 0.0 0.0
05:44 8.9 8.8 99 1018.7 1.6 NW 1.6 0.0 0.0
05:45 8.9 8.8 99 1018.9 0.7 NW 1.6 0.0 0.0
05:46 8.9 8.8 99 1018.9 0.7 NW 1.6 0.0 0.0
05:47 8.9 8.8 99 1018.9 1.6 NW 1.6 0.0 0.0
05:48 8.9 8.8 99 1018.9 1.6 NW 1.6 0.0 0.0
05:49 8.9 8.8 99 1018.9 1.6 NW 1.6 0.0 0.0
05:50 8.9 8.8 99 1018.8 0.7 NW 1.6 0.0 0.0
05:51 8.9 8.8 99 1019.0 1.6 NW 1.6 0.0 0.0
05:52 8.9 8.8 99 1018.9 0.7 NW 1.6 0.0 0.0
05:53 8.9 8.8 99 1018.9 0.7 NW 1.6 0.0 0.0
05:54 8.9 8.8 99 1019.0 0.7 NW 1.6 0.0 0.0
05:55 8.9 8.8 99 1019.1 0.7 NW 1.6 0.0 0.0
05:56 8.9 8.8 99 1019.0 0.7 NW 1.6 0.0 0.0
05:57 8.9 8.8 99 1019.2 0.7 NW 1.6 0.0 0.0
05:58 9.0 8.9 99 1019.1 0.7 NW 1.6 0.0 0.0
05:59 9.0 8.9 99 1019.2 0.0 NW 1.6 0.0 0.0
05:59 9.0 8.9 99 1019.2 0.0 NW 1.6 0.0 0.0
06:00 9.0 8.9 99 1019.1 0.7 NW 1.6 0.0 0.0
06:02 9.0 8.9 99 1019.1 0.7 NW 0.7 0.0 0.0
06:03 9.0 8.9 99 1019.3 0.7 NW 0.7 0.0 0.0
06:04 9.0 8.9 99 1019.2 0.7 NW 0.7 0.0 0.0
06:05 9.0 8.9 99 1019.2 0.7 NW 0.7 0.0 0.0
06:06 9.0 8.9 99 1019.2 0.7 NW 0.7 0.0 0.0
06:07 9.0 8.9 99 1019.3 0.7 NW 0.7 0.0 0.0
06:07 9.0 8.9 99 1019.3 0.7 NW 0.7 0.0 0.0
06:09 9.1 9.0 99 1019.2 1.6 NW 1.6 0.0 0.0
06:10 9.1 9.0 99 1019.3 1.6 NW 1.6 0.0 0.0
06:10 9.1 9.0 99 1019.3 1.6 NW 1.6 0.0 0.0
06:12 9.1 9.0 99 1019.3 0.7 NW 1.6 0.0 0.0
06:13 9.2 9.1 99 1019.2 1.6 NW 1.6 0.0 0.0
06:14 9.2 9.1 99 1019.3 0.7 NW 1.6 0.0 0.0
06:15 9.2 9.1 99 1019.3 1.6 S 1.6 0.0 0.0
06:16 9.2 9.1 99 1019.2 1.6 S 1.6 0.0 0.0
06:17 9.2 9.1 99 1019.4 0.7 S 1.6 0.0 0.0
06:18 9.3 9.2 99 1019.3 1.6 S 1.6 0.0 0.0
06:19 9.3 9.2 99 1019.3 0.7 S 1.6 0.0 0.0
06:20 9.4 9.3 99 1019.2 2.2 S 2.2 0.0 0.0
06:20 9.4 9.3 99 1019.2 2.2 S 2.2 0.0 0.0
06:22 9.4 9.3 99 1019.3 2.2 S 2.2 0.0 0.0
06:23 9.5 9.4 99 1019.2 1.6 S 2.2 0.0 0.0
06:24 9.5 9.4 99 1019.3 1.6 S 2.2 0.0 0.0
06:25 9.5 9.4 99 1019.3 1.6 S 2.2 0.0 0.0
06:26 9.6 9.5 99 1019.3 1.6 S 2.2 0.0 0.0
06:27 9.6 9.5 99 1019.2 0.7 S 2.2 0.0 0.0
06:28 9.6 9.5 99 1019.3 0.7 S 2.2 0.0 0.0
06:29 9.7 9.6 99 1019.2 2.2 WSW 2.2 0.0 0.0
06:30 9.7 9.6 99 1019.3 3.8 WSW 3.8 0.0 0.0
06:31 9.7 9.6 99 1019.3 5.4 WSW 5.4 0.0 0.0
06:32 9.8 9.7 99 1019.2 4.5 WSW 6.9 0.0 0.0
06:33 9.8 9.7 99 1019.2 3.8 N 6.9 0.0 0.0
06:34 9.8 9.7 99 1019.3 2.2 N 6.9 0.0 0.0
06:35 9.8 9.7 99 1019.3 2.2 N 6.9 0.0 0.0
06:35 9.8 9.7 99 1019.3 2.2 N 6.9 0.0 0.0
06:37 9.8 9.7 99 1019.3 2.2 N 6.9 0.0 0.0
06:38 9.8 9.7 99 1019.4 1.6 N 6.9 0.0 0.0
06:39 9.8 9.7 99 1019.5 2.2 N 6.9 0.0 0.0
06:40 9.9 9.8 99 1019.4 3.8 SE 6.9 0.0 0.0
06:41 9.9 9.8 99 1019.3 1.6 SE 6.9 0.0 0.0
06:42 9.9 9.8 99 1019.4 3.8 SE 6.9 0.0 0.0
06:43 9.9 9.8 99 1019.4 1.6 SE 3.8 0.0 0.0
06:44 9.9 9.8 99 1019.4 1.6 SE 3.8 0.0 0.0
06:45 9.9 9.8 99 1019.3 1.6 SE 3.8 0.0 0.0
06:46 9.9 9.8 99 1019.4 1.6 SE 3.8 0.0 0.0
06:47 9.9 9.8 99 1019.3 2.2 SE 3.8 0.0 0.0
06:48 9.9 9.8 99 1019.4 1.6 SE 3.8 0.0 0.0
06:49 9.9 9.8 99 1019.3 1.6 SE 3.8 0.0 0.0
06:50 9.9 9.8 99 1019.4 1.6 SE 3.8 0.0 0.0
06:51 9.9 9.8 99 1019.4 2.2 SE 3.8 0.0 0.0
06:51 9.9 9.8 99 1019.4 2.2 SE 3.8 0.0 0.0
06:53 9.9 9.8 99 1019.5 2.2 SE 3.1 0.0 0.0
06:54 9.9 9.8 99 1019.3 1.6 SE 3.1 0.0 0.0
06:55 9.9 9.8 99 1019.5 2.2 SE 3.1 0.0 0.0
06:56 9.9 9.8 99 1019.4 2.2 SE 3.1 0.0 0.0
06:57 9.9 9.8 99 1019.4 1.6 SE 3.1 0.0 0.0
06:58 9.9 9.8 99 1019.4 0.7 SE 3.1 0.0 0.0
06:59 9.9 9.8 99 1019.4 1.6 SE 3.1 0.0 0.0
06:59 9.9 9.8 99 1019.4 1.6 SE 3.1 0.0 0.0
07:01 9.9 9.8 99 1019.6 1.6 SE 3.1 0.0 0.0
07:02 9.9 9.8 99 1019.5 1.6 SE 3.1 0.0 0.0
07:03 9.9 9.8 99 1019.6 1.6 SE 2.2 0.0 0.0
07:04 9.9 9.8 99 1019.6 1.6 SE 2.2 0.0 0.0
07:05 9.9 9.8 99 1019.6 1.6 SE 2.2 0.0 0.0
07:06 9.9 9.8 99 1019.6 0.7 SE 1.6 0.0 0.0
07:06 9.9 9.8 99 1019.6 0.7 SE 1.6 0.0 0.0
07:08 9.9 9.8 99 1019.6 0.7 SE 1.6 0.0 0.0
07:09 10.0 9.9 99 1019.6 0.7 SE 1.6 0.0 0.0
07:10 10.0 9.9 99 1019.6 1.6 SE 1.6 0.0 0.0
07:10 10.0 9.9 99 1019.6 1.6 SE 1.6 0.0 0.0
07:12 10.0 9.9 99 1019.6 2.2 SE 2.2 0.0 0.0
07:13 10.0 9.9 99 1019.6 3.1 SE 3.1 0.0 0.0
07:14 10.0 9.9 99 1019.6 1.6 SE 3.1 0.0 0.0
07:15 10.0 9.9 99 1019.7 1.6 SE 3.1 0.0 0.0
07:16 10.0 9.9 99 1019.8 1.6 SE 3.1 0.0 0.0
07:17 10.0 9.9 99 1019.7 0.7 SE 3.1 0.0 0.0
07:18 10.0 9.9 99 1019.7 0.7 SE 3.1 0.0 0.0
07:18 10.0 9.9 99 1019.7 0.7 SE 3.1 0.0 0.0
07:19 10.0 9.9 99 1019.9 0.7 SE 3.1 0.0 0.0
07:21 10.0 9.9 99 1019.8 0.7 SE 3.1 0.0 0.0
07:22 10.0 9.9 99 1019.8 0.7 SE 3.1 0.0 0.0
07:23 10.0 9.9 99 1019.8 0.7 SE 3.1 0.0 0.0
07:24 10.0 9.9 99 1019.9 1.6 SE 1.6 0.0 0.0
07:25 10.0 9.9 99 1019.8 1.6 SE 1.6 0.0 0.0
07:26 10.0 9.9 99 1020.0 0.7 SE 1.6 0.0 0.0
07:27 10.0 9.9 99 1019.9 1.6 SE 1.6 0.0 0.0
07:28 10.0 9.9 99 1019.9 1.6 SE 1.6 0.0 0.0
07:29 10.0 9.9 99 1019.9 0.7 SE 1.6 0.0 0.0
07:30 10.0 9.9 99 1019.9 1.6 SE 1.6 0.0 0.0
07:31 10.0 9.9 99 1019.8 2.2 SE 2.2 0.0 0.0
07:32 10.0 9.9 99 1019.9 0.7 SE 2.2 0.0 0.0
07:33 10.0 9.9 99 1020.1 1.6 SE 2.2 0.0 0.0
07:34 10.0 9.9 99 1020.0 1.6 SE 2.2 0.0 0.0
07:35 10.0 9.9 99 1019.9 2.2 SE 2.2 0.0 0.0
07:36 9.9 9.8 99 1020.0 1.6 SE 2.2 0.0 0.0
07:37 10.0 9.9 99 1019.9 1.6 SE 2.2 0.0 0.0
07:38 10.0 9.9 99 1019.9 1.6 SE 2.2 0.0 0.0
07:39 9.9 9.8 99 1020.0 2.2 SE 2.2 0.0 0.0
07:40 10.0 9.9 99 1020.1 1.6 SE 2.2 0.0 0.0
07:41 10.0 9.9 99 1020.1 1.6 SE 2.2 0.0 0.0
07:42 10.0 9.9 99 1020.0 0.7 SE 2.2 0.0 0.0
07:43 10.0 9.9 99 1020.1 0.7 SE 2.2 0.0 0.0
07:44 10.0 9.9 99 1020.2 0.7 SE 2.2 0.0 0.0
07:45 10.0 9.9 99 1020.2 1.6 SE 2.2 0.0 0.0
07:46 10.0 9.9 99 1020.1 1.6 SE 2.2 0.0 0.0
07:47 9.9 9.8 99 1020.1 1.6 SE 2.2 0.0 0.0
07:48 10.0 9.9 99 1020.2 0.7 SE 2.2 0.0 0.0
07:49 9.9 9.8 99 1020.2 0.7 SE 1.6 0.0 0.0
07:50 9.9 9.8 99 1020.2 1.6 SE 1.6 0.0 0.0
07:51 9.9 9.8 99 1020.1 1.6 SE 1.6 0.0 0.0
07:52 10.0 9.9 99 1020.1 0.7 SE 1.6 0.0 0.0
07:53 9.9 9.8 99 1020.2 0.7 SE 1.6 0.0 0.0
07:54 9.9 9.8 99 1020.0 1.6 SE 1.6 0.0 0.0
07:55 9.9 9.8 99 1020.0 0.0 SE 1.6 0.0 0.0
07:56 9.9 9.8 99 1020.1 0.7 SE 1.6 0.0 0.0
07:56 9.9 9.8 99 1020.1 0.7 SE 1.6 0.0 0.0
07:58 9.9 9.8 99 1020.2 0.7 SE 1.6 0.0 0.0
07:59 9.9 9.8 99 1020.2 0.0 SE 1.6 0.0 0.0
08:00 9.9 9.8 99 1020.1 0.7 SE 1.6 0.0 0.0
08:01 9.9 9.8 99 1020.2 0.7 SE 1.6 0.0 0.0
08:02 9.9 9.8 99 1020.1 0.7 SE 1.6 0.0 0.0
08:03 9.9 9.8 99 1020.2 0.7 SE 1.6 0.0 0.0
08:04 9.9 9.8 99 1020.1 0.7 SE 1.6 0.0 0.0
08:05 9.9 9.8 99 1020.2 0.7 SE 0.7 0.0 0.0
08:06 9.9 9.8 99 1020.2 0.7 SE 1.6 0.0 0.0
08:07 9.9 9.8 99 1020.1 0.7 SE 1.6 0.0 0.0
08:07 9.9 9.8 99 1020.1 0.7 SE 1.6 0.0 0.0
08:09 9.9 9.8 99 1020.3 0.7 SE 1.6 0.0 0.0
08:10 10.0 9.9 99 1020.2 0.7 SE 1.6 0.0 0.0
08:11 10.0 9.9 99 1020.2 1.6 SE 1.6 0.0 0.0
08:11 10.0 9.9 99 1020.2 1.6 SE 1.6 0.0 0.0
08:13 10.0 9.9 99 1020.3 0.7 SE 1.6 0.0 0.0
08:14 10.0 9.9 99 1020.2 0.7 SE 1.6 0.0 0.0
08:15 10.0 9.9 99 1020.3 0.7 SE 1.6 0.0 0.0
08:16 10.0 9.9 99 1020.3 0.7 SE 1.6 0.0 0.0
08:17 10.0 9.9 99 1020.4 0.7 SE 1.6 0.0 0.0
08:18 10.0 9.9 99 1020.4 0.7 SE 1.6 0.0 0.0
08:19 10.0 9.9 99 1020.2 0.7 SE 1.6 0.0 0.0
08:20 10.1 10.0 99 1020.3 0.7 SE 1.6 0.0 0.0
08:21 10.1 10.0 99 1020.3 0.7 SE 1.6 0.0 0.0
08:22 10.1 10.0 99 1020.2 0.7 SE 1.6 0.0 0.0
08:23 10.1 10.0 99 1020.4 0.0 SE 1.6 0.0 0.0
08:24 10.1 10.0 99 1020.3 0.7 SE 1.6 0.0 0.0
08:25 10.1 10.0 99 1020.4 0.7 SE 1.6 0.0 0.0
08:26 10.1 10.0 99 1020.3 1.6 SE 1.6 0.0 0.0
08:27 10.1 10.0 99 1020.3 0.7 SE 1.6 0.0 0.0
08:28 10.1 10.0 99 1020.5 0.7 SE 1.6 0.0 0.0
08:29 10.1 10.0 99 1020.4 2.2 SE 2.2 0.0 0.0
08:30 10.2 10.1 99 1020.4 2.2 SE 2.2 0.0 0.0
08:31 10.2 10.1 99 1020.4 1.6 SE 2.2 0.0 0.0
08:32 10.2 10.1 99 1020.4 0.7 SE 2.2 0.0 0.0
08:33 10.2 10.1 99 1020.3 0.7 SE 2.2 0.0 0.0
08:34 10.2 10.1 99 1020.3 0.0 SE 2.2 0.0 0.0
08:35 10.2 10.1 99 1020.3 0.0 SE 2.2 0.0 0.0
08:36 10.2 10.1 99 1020.3 0.0 SE 2.2 0.0 0.0
08:37 10.2 10.1 99 1020.5 0.7 SE 2.2 0.0 0.0
08:38 10.2 10.1 99 1020.5 0.7 SE 2.2 0.0 0.0
08:39 10.3 10.2 99 1020.3 1.6 SE 2.2 0.0 0.0
08:39 10.3 10.2 99 1020.3 1.6 SE 2.2 0.0 0.0
08:40 10.3 10.2 99 1020.5 0.7 SE 2.2 0.0 0.0
08:41 10.3 10.2 99 1020.4 0.7 SE 1.6 0.0 0.0
08:43 10.3 10.2 99 1020.4 0.0 SE 1.6 0.0 0.0
08:44 10.3 10.2 99 1020.4 0.0 SE 1.6 0.0 0.0
08:45 10.3 10.2 99 1020.4 0.7 SE 1.6 0.0 0.0
08:46 10.3 10.2 99 1020.5 0.7 SE 1.6 0.0 0.0
08:47 10.3 10.2 99 1020.4 0.7 SE 1.6 0.0 0.0
08:48 10.4 10.3 99 1020.4 0.7 SE 1.6 0.0 0.0
08:49 10.4 10.3 99 1020.4 0.7 SE 1.6 0.0 0.0
08:50 10.4 10.3 99 1020.5 0.7 SE 0.7 0.0 0.0
08:51 10.4 10.3 99 1020.4 0.7 SE 0.7 0.0 0.0
08:52 10.4 10.3 99 1020.6 0.7 SE 0.7 0.0 0.0
08:53 10.4 10.3 99 1020.5 0.7 SE 0.7 0.0 0.0
08:54 10.4 10.3 99 1020.5 0.7 SE 0.7 0.0 0.0
08:55 10.4 10.3 99 1020.6 0.7 SE 0.7 0.0 0.0
08:56 10.5 10.4 99 1020.6 1.6 SE 1.6 0.0 0.0
08:57 10.5 10.4 99 1020.5 0.7 SE 1.6 0.0 0.0
08:58 10.5 10.4 99 1020.5 0.7 SE 1.6 0.0 0.0
08:59 10.5 10.4 99 1020.6 0.0 SE 1.6 0.0 0.0
09:00 10.5 10.4 99 1020.6 0.0 SE 1.6 0.0 0.0
09:01 10.5 10.4 99 1020.6 0.0 SE 1.6 0.0 0.0
09:02 10.5 10.4 99 1020.4 0.0 SE 1.6 0.0 0.0
09:03 10.5 10.4 99 1020.5 0.0 SE 1.6 0.0 0.0
09:04 10.5 10.4 99 1020.6 0.0 SE 1.6 0.0 0.0
09:05 10.5 10.4 99 1020.5 0.0 SE 1.6 0.0 0.0
09:05 10.5 10.4 99 1020.5 0.0 SE 1.6 0.0 0.0
09:07 10.5 10.4 99 1020.7 0.0 SE 0.7 0.0 0.0
09:08 10.7 10.6 99 1020.6 0.0 SE 0.7 0.0 0.0
09:08 10.7 10.6 99 1020.6 0.0 SE 0.7 0.0 0.0
09:10 10.7 10.6 99 1020.5 0.0 SE 0.7 0.0 0.0
09:10 10.7 10.6 99 1020.5 0.0 SE 0.7 0.0 0.0
09:12 10.8 10.7 99 1020.6 0.0 SE 0.7 0.0 0.0
09:13 10.8 10.7 99 1020.5 0.7 SE 0.7 0.0 0.0
09:14 10.8 10.7 99 1020.5 0.7 SE 0.7 0.0 0.0
09:15 10.8 10.7 99 1020.7 1.6 SE 1.6 0.0 0.0
09:16 10.9 10.8 99 1020.6 1.6 SE 3.8 0.0 0.0
09:17 10.9 10.8 99 1020.6 1.6 SE 3.8 0.0 0.0
09:18 10.9 10.8 99 1020.5 1.6 SE 3.8 0.0 0.0
09:19 11.0 10.9 99 1020.4 1.6 SE 3.8 0.0 0.0
09:20 11.0 10.9 99 1020.5 1.6 SE 3.8 0.0 0.0
09:21 11.0 10.9 99 1020.6 1.6 SE 3.8 0.0 0.0
09:22 11.1 11.0 99 1020.5 1.6 SE 3.8 0.0 0.0
09:23 11.1 11.0 99 1020.6 0.7 SE 3.8 0.0 0.0
09:24 11.1 11.0 99 1020.6 2.2 SE 3.8 0.0 0.0
09:25 11.2 11.1 99 1020.7 2.2 SE 3.8 0.0 0.0
09:26 11.2 11.1 99 1020.7 3.1 SE 3.1 0.0 0.0
09:27 11.3 11.2 99 1020.8 1.6 SE 3.1 0.0 0.0
09:28 11.3 11.2 99 1020.8 3.1 SE 3.1 0.0 0.0
09:29 11.4 11.3 99 1020.9 2.2 SE 3.1 0.0 0.0
09:30 11.4 11.3 99 1020.8 3.1 SE 3.1 0.0 0.0
09:31 11.4 11.3 99 1020.7 3.8 SE 3.8 0.0 0.0
09:32 11.5 11.4 99 1020.8 5.4 S 6.9 0.0 0.0
09:33 11.6 11.5 99 1020.7 3.8 S 6.9 0.0 0.0
09:34 11.6 11.5 99 1020.7 4.5 S 6.9 0.0 0.0
09:35 11.6 11.5 99 1020.7 4.5 WSW 6.9 0.0 0.0
09:36 11.7 11.6 99 1020.8 3.1 S 6.9 0.0 0.0
09:37 11.7 11.6 99 1020.7 3.8 S 6.9 0.0 0.0
09:38 11.7 11.6 99 1020.8 4.5 S 6.9 0.0 0.0
09:39 11.8 11.7 99 1020.7 3.8 WSW 6.9 0.0 0.0
09:40 11.8 11.7 99 1020.8 4.5 S 6.9 0.0 0.0
09:41 11.8 11.7 99 1020.7 4.5 S 6.9 0.0 0.0
09:42 11.9 11.8 99 1020.8 3.8 S 5.4 0.0 0.0
09:42 11.9 11.8 99 1020.8 3.8 S 5.4 0.0 0.0
09:43 11.9 11.8 99 1020.9 4.5 S 4.5 0.0 0.0
09:44 11.9 11.8 99 1020.9 5.4 S 5.4 0.0 0.0
09:45 11.9 11.8 99 1020.8 4.5 S 5.4 0.0 0.0
09:46 12.0 11.9 99 1020.8 3.8 S 5.4 0.0 0.0
09:47 12.0 11.9 99 1020.8 4.5 S 5.4 0.0 0.0
09:48 12.0 11.9 99 1020.7 3.8 S 5.4 0.0 0.0
09:50 12.0 11.9 99 1020.9 3.8 S 5.4 0.0 0.0
09:51 12.0 11.9 99 1020.8 4.5 S 5.4 0.0 0.0
09:52 12.0 11.9 99 1020.8 5.4 S 5.4 0.0 0.0
09:53 12.0 11.9 99 1020.8 5.4 S 5.4 0.0 0.0
09:54 12.0 11.9 99 1020.9 5.4 S 5.4 0.0 0.0
09:55 12.0 11.9 99 1020.8 7.6 S 7.6 0.0 0.0
09:56 12.0 11.9 99 1020.8 6.9 S 7.6 0.0 0.0
09:57 12.0 11.9 99 1020.8 6.0 S 7.6 0.0 0.0
09:58 12.0 11.9 99 1020.9 6.0 S 7.6 0.0 0.0
09:59 12.0 11.9 99 1020.7 4.5 S 7.6 0.0 0.0
10:00 11.9 11.8 99 1020.9 3.8 S 7.6 0.0 0.0
10:01 11.9 11.8 99 1020.8 3.8 S 7.6 0.0 0.0
10:02 11.9 11.8 99 1020.8 3.8 S 7.6 0.0 0.0
10:03 11.9 11.8 99 1020.8 3.8 S 7.6 0.0 0.0
10:04 11.9 11.8 99 1020.9 3.8 S 7.6 0.0 0.0
10:05 11.9 11.8 99 1020.9 3.8 S 7.6 0.0 0.0
10:06 11.9 11.8 99 1021.0 4.5 S 6.9 0.0 0.0
10:06 11.9 11.8 99 1021.0 4.5 S 6.9 0.0 0.0
10:07 12.0 11.9 99 1021.0 4.5 S 6.0 0.0 0.0
10:09 12.1 12.0 99 1021.0 4.5 SE 5.4 0.0 0.0
10:09 12.1 12.0 99 1021.0 4.5 SE 5.4 0.0 0.0
10:11 12.1 12.0 99 1021.2 4.5 S 5.4 0.0 0.0
10:12 12.2 12.1 99 1021.0 7.6 S 7.6 0.0 0.0
10:13 12.2 12.1 99 1021.1 6.0 S 7.6 0.0 0.0
10:14 12.2 12.1 99 1021.0 5.4 S 7.6 0.0 0.0
10:15 12.3 12.2 99 1021.1 5.4 S 7.6 0.0 0.0
10:15 12.3 12.2 99 1021.1 5.4 S 7.6 0.0 0.0
10:16 12.3 12.2 99 1021.1 6.9 S 8.3 0.0 0.0
10:17 12.4 12.3 99 1021.0 5.4 S 8.3 0.0 0.0
10:18 12.4 12.3 99 1020.9 8.3 SE 8.3 0.0 0.0
10:20 12.5 12.4 99 1021.1 6.9 S 8.3 0.0 0.0
10:21 12.5 12.4 99 1021.2 9.2 S 9.2 0.0 0.0
10:22 12.5 12.4 99 1021.0 6.9 S 9.2 0.0 0.0
10:23 12.6 12.5 99 1021.1 6.0 S 9.2 0.0 0.0
10:24 12.6 12.5 99 1021.2 7.6 S 9.2 0.0 0.0
10:25 12.7 12.6 99 1021.1 6.9 NW 9.2 0.0 0.0
10:26 12.7 12.6 99 1021.1 7.6 S 9.2 0.0 0.0
10:27 12.7 12.6 99 1021.2 6.0 S 9.2 0.0 0.0
10:28 12.8 12.7 99 1021.0 4.5 S 9.2 0.0 0.0
10:29 12.8 12.7 99 1021.0 6.0 S 9.2 0.0 0.0
10:30 12.8 12.7 99 1021.1 8.3 SW 9.2 0.0 0.0
10:31 12.9 12.8 99 1021.1 8.3 S 10.7 0.0 0.0
10:32 12.9 12.8 99 1021.1 8.3 S 10.7 0.0 0.0
10:33 12.9 12.8 99 1021.3 9.8 S 10.7 0.0 0.0
10:34 13.0 12.9 99 1021.0 9.2 SE 10.7 0.0 0.0
10:35 13.0 12.9 99 1021.2 7.6 S 10.7 0.0 0.0
10:36 13.1 13.0 99 1021.2 8.3 S 10.7 0.0 0.0
10:37 13.0 12.9 99 1021.2 11.4 S 11.4 0.0 0.0
10:38 13.1 13.0 99 1021.2 10.7 S 11.4 0.0 0.0
10:39 13.1 13.0 99 1021.2 10.7 S 11.4 0.0 0.0
10:40 13.1 13.0 99 1021.2 9.2 S 11.4 0.0 0.0
10:41 13.2 13.1 99 1021.2 8.3 NW 11.4 0.0 0.0
10:42 13.2 13.1 99 1021.2 10.7 WSW 11.4 0.0 0.0
10:43 13.2 13.1 99 1021.2 7.6 SW 11.4 0.0 0.0
10:44 13.3 13.2 99 1021.2 8.3 S 11.4 0.0 0.0
10:45 13.3 13.2 99 1021.2 9.2 SW 11.4 0.0 0.0
10:45 13.3 13.2 99 1021.2 9.2 SW 11.4 0.0 0.0
10:46 13.4 13.3 99 1021.3 8.3 SW 11.4 0.0 0.0
10:47 13.4 13.3 99 1021.3 11.4 SW 11.4 0.0 0.0
10:48 13.5 13.4 99 1021.3 9.8 S 11.4 0.0 0.0
10:50 13.5 13.4 99 1021.2 13.0 S 13.0 0.0 0.0
10:51 13.6 13.5 99 1021.3 10.7 N 13.0 0.0 0.0
10:52 13.6 13.5 99 1021.3 13.0 SW 13.0 0.0 0.0
10:53 13.6 13.5 99 1021.3 11.4 SW 13.0 0.0 0.0
10:54 13.7 13.6 99 1021.2 10.7 S 13.0 0.0 0.0
10:55 13.7 13.6 99 1021.3 9.2 SW 13.0 0.0 0.0
10:56 13.7 13.6 99 1021.3 9.8 S 13.0 0.0 0.0
10:57 13.7 13.6 99 1021.3 8.3 SW 13.0 0.0 0.0
10:58 13.8 13.7 99 1021.3 8.3 S 13.0 0.0 0.0
10:59 13.9 13.8 99 1021.3 9.8 S 13.0 0.0 0.0
11:00 13.9 13.8 99 1021.4 9.8 S 13.0 0.0 0.0
11:01 14.0 13.9 99 1021.4 9.8 SW 13.0 0.0 0.0
11:02 14.0 13.9 99 1021.4 12.1 SW 12.1 0.0 0.0
11:03 14.0 13.9 99 1021.4 9.8 S 12.1 0.0 0.0
11:04 14.0 13.9 99 1021.4 10.7 SW 12.1 0.0 0.0
11:05 14.1 14.0 99 1021.4 9.8 S 12.1 0.0 0.0
11:05 14.1 14.0 99 1021.4 9.8 S 12.1 0.0 0.0
11:07 14.1 14.0 99 1021.4 6.9 SW 12.1 0.0 0.0
11:08 14.3 14.2 99 1021.4 7.6 S 12.1 0.0 0.0
11:08 14.3 14.2 99 1021.4 7.6 S 12.1 0.0 0.0
11:10 14.3 14.2 99 1021.4 8.3 NW 12.1 0.0 0.0
11:11 14.4 14.3 99 1021.4 8.3 S 12.1 0.0 0.0
11:11 14.4 14.3 99 1021.4 8.3 S 12.1 0.0 0.0
11:13 14.4 14.3 99 1021.4 10.7 S 10.7 0.0 0.0
11:14 14.4 14.3 99 1021.4 9.8 SW 10.7 0.0 0.0
11:15 14.4 14.3 99 1021.3 12.1 S 12.1 0.0 0.0
11:16 14.4 14.3 99 1021.5 10.7 SW 12.1 0.0 0.0
11:17 14.4 14.3 99 1021.5 10.7 S 12.1 0.0 0.0
11:18 14.4 14.3 99 1021.5 11.4 S 12.1 0.0 0.0
11:19 14.4 14.3 99 1021.5 8.3 SW 12.1 0.0 0.0
11:20 14.4 14.3 99 1021.6 9.2 SW 12.1 0.0 0.0
11:21 14.4 14.3 99 1021.4 8.3 S 12.1 0.0 0.0
11:22 14.4 14.3 99 1021.4 13.0 S 13.0 0.0 0.0
11:23 14.4 14.3 99 1021.4 8.3 S 13.0 0.0 0.0
11:24 14.4 14.3 99 1021.6 9.2 WNW 13.0 0.0 0.0
11:25 14.3 14.2 99 1021.5 8.3 SW 13.0 0.0 0.0
11:26 14.3 14.2 99 1021.5 7.6 SW 13.0 0.0 0.0
11:27 14.3 14.2 99 1021.6 8.3 S 13.0 0.0 0.0
11:28 14.4 14.3 99 1021.5 6.0 S 13.0 0.0 0.0
11:29 14.4 14.3 99 1021.6 13.0 S 13.0 0.0 0.0
11:30 14.4 14.3 99 1021.4 11.4 S 13.0 0.0 0.0
11:31 14.4 14.3 99 1021.6 9.8 SW 13.0 0.0 0.0
11:32 14.4 14.3 99 1021.5 6.9 SW 13.0 0.0 0.0
11:32 14.4 14.3 99 1021.5 6.9 SW 13.0 0.0 0.0
11:33 14.4 14.3 99 1021.5 8.3 S 13.0 0.0 0.0
11:34 14.4 14.3 99 1021.6 10.7 S 13.0 0.0 0.0
11:35 14.4 14.3 99 1021.5 9.2 SE 13.0 0.0 0.0
11:36 14.4 14.3 99 1021.5 9.8 SW 13.0 0.0 0.0
11:37 14.4 14.3 99 1021.5 9.8 S 13.0 0.0 0.0
11:39 14.4 14.3 99 1021.6 9.2 S 13.0 0.0 0.0
11:40 14.4 14.3 99 1021.6 9.2 SW 11.4 0.0 0.0
11:41 14.4 14.3 99 1021.6 7.6 S 10.7 0.0 0.0
11:42 14.4 14.3 99 1021.7 9.8 SW 10.7 0.0 0.0
11:43 14.4 14.3 99 1021.7 10.7 SW 10.7 0.0 0.0
11:44 14.4 14.3 99 1021.5 8.3 S 10.7 0.0 0.0
11:45 14.4 14.3 99 1021.7 8.3 S 10.7 0.0 0.0
11:46 14.4 14.3 99 1021.6 6.0 SW 10.7 0.0 0.0
11:47 14.5 14.4 99 1021.3 9.2 S 10.7 0.0 0.0
11:48 14.5 14.4 99 1021.6 9.2 SW 10.7 0.0 0.0
11:49 14.5 14.4 99 1021.4 8.3 S 10.7 0.0 0.0
11:50 14.5 14.4 99 1021.5 9.2 SW 10.7 0.0 0.0
11:51 14.5 14.4 99 1021.4 9.2 S 10.7 0.0 0.0
11:52 14.5 14.4 99 1021.3 8.3 S 10.7 0.0 0.0
11:53 14.6 14.5 99 1021.5 10.7 S 10.7 0.0 0.0
11:54 14.6 14.5 99 1021.6 9.2 SW 10.7 0.0 0.0
11:55 14.6 14.5 99 1021.4 9.8 S 10.7 0.0 0.0
11:56 14.7 14.6 99 1021.5 7.6 S 10.7 0.0 0.0
11:57 14.7 14.6 99 1021.4 8.3 S 10.7 0.0 0.0
11:58 14.8 14.7 99 1021.4 8.3 N 10.7 0.0 0.0
11:59 14.8 14.7 99 1021.5 7.6 S 10.7 0.0 0.0
12:00 14.9 14.8 99 1021.3 12.1 S 12.1 0.0 0.0
12:01 15.0 14.9 99 1021.5 9.8 S 12.1 0.0 0.0
12:01 15.0 14.9 99 1021.5 9.8 S 12.1 0.0 0.0
12:02 15.0 14.9 99 1021.4 9.2 SE 12.1 0.0 0.0
12:04 15.1 15.0 99 1021.4 9.8 S 12.1 0.0 0.0
12:05 15.0 14.9 99 1021.4 10.7 SW 12.1 0.0 0.0
12:05 15.0 14.9 99 1021.4 10.7 SW 12.1 0.0 0.0
12:07 15.0 14.9 99 1021.4 11.4 S 12.1 0.0 0.0
12:08 15.1 15.0 99 1021.4 8.3 S 12.1 0.0 0.0
12:08 15.1 15.0 99 1021.4 8.3 S 12.1 0.0 0.0
12:10 15.1 15.0 99 1021.3 8.3 W 12.1 0.0 0.0
12:10 15.1 15.0 99 1021.3 8.3 W 12.1 0.0 0.0
12:11 15.2 15.1 99 1021.4 13.0 S 13.0 0.0 0.0
12:13 15.4 15.3 99 1021.4 9.2 S 13.0 0.0 0.0
12:14 15.5 15.4 99 1021.4 11.4 S 13.0 0.0 0.0
12:15 15.6 15.5 99 1021.5 9.8 SW 13.0 0.0 0.0
12:16 15.7 15.6 99 1021.6 9.8 SW 13.0 0.0 0.0
12:17 15.7 15.6 99 1021.4 8.3 S 13.0 0.0 0.0
12:17 15.7 15.6 99 1021.4 8.3 S 13.0 0.0 0.0
12:18 15.8 15.7 99 1021.5 7.6 S 13.0 0.0 0.0
12:20 15.8 15.7 99 1021.4 13.0 S 13.0 0.0 0.0
12:21 15.8 15.7 99 1021.4 10.7 S 13.0 0.0 0.0
12:22 15.8 15.7 99 1021.6 9.8 S 13.0 0.0 0.0
12:23 15.8 15.5 98 1021.5 10.7 S 13.0 0.0 0.0
12:24 15.7 15.4 98 1021.4 9.8 W 13.0 0.0 0.0
12:25 15.7 15.4 98 1021.4 9.2 S 13.0 0.0 0.0
12:26 15.8 15.7 99 1021.5 10.7 S 13.0 0.0 0.0
12:27 15.8 15.5 98 1021.6 10.7 S 13.0 0.0 0.0
12:28 15.9 15.6 98 1021.4 9.8 SE 13.0 0.0 0.0
12:29 15.9 15.8 99 1021.6 9.8 S 13.0 0.0 0.0
12:30 15.9 15.6 98 1021.4 9.8 S 13.0 0.0 0.0
12:31 15.9 15.6 98 1021.3 10.7 S 13.0 0.0 0.0
12:32 15.8 15.3 97 1021.4 9.2 S 13.0 0.0 0.0
12:33 15.8 15.5 98 1021.4 7.6 SW 13.0 0.0 0.0
12:34 15.8 15.5 98 1021.4 11.4 S 13.0 0.0 0.0
12:34 15.8 15.5 98 1021.4 11.4 S 13.0 0.0 0.0
12:35 15.8 15.2 96 1021.4 9.8 S 13.0 0.0 0.0
12:36 15.8 15.2 96 1021.3 9.2 SW 12.1 0.0 0.0
12:37 15.8 15.2 96 1021.2 7.6 S 12.1 0.0 0.0
12:38 15.9 15.3 96 1021.3 9.8 S 12.1 0.0 0.0
12:40 15.9 14.9 94 1021.4 13.0 S 13.0 0.0 0.0
12:41 15.9 14.8 93 1021.3 10.7 S 13.0 0.0 0.0
12:42 15.9 14.9 94 1021.4 12.1 SW 13.0 0.0 0.0
12:43 16.0 15.2 95 1021.3 11.4 SW 13.0 0.0 0.0
12:44 16.0 15.4 96 1021.4 9.8 S 13.0 0.0 0.0
12:45 16.0 15.4 96 1021.3 13.6 SE 13.6 0.0 0.0
12:46 16.0 15.4 96 1021.4 11.4 S 13.6 0.0 0.0
12:47 16.2 15.7 97 1021.4 7.6 S 13.6 0.0 0.0
12:48 16.1 15.8 98 1021.5 9.2 S 13.6 0.0 0.0
12:49 16.2 15.7 97 1021.5 9.8 S 13.6 0.0 0.0
12:50 16.2 15.7 97 1021.3 8.3 S 13.6 0.0 0.0
12:51 16.2 15.7 97 1021.3 9.8 S 13.6 0.0 0.0
12:52 16.1 15.3 95 1021.5 9.8 SE 13.6 0.0 0.0
12:53 16.0 15.0 94 1021.5 9.8 S 13.6 0.0 0.0
12:54 16.0 15.0 94 1021.3 11.4 S 13.6 0.0 0.0
12:55 16.2 15.2 94 1021.5 11.4 S 11.4 0.0 0.0
12:56 16.1 15.3 95 1021.3 9.8 S 11.4 0.0 0.0
12:57 16.1 15.3 95 1021.3 9.8 S 11.4 0.0 0.0
12:58 16.1 15.3 95 1021.4 9.2 SW 11.4 0.0 0.0
12:59 16.2 15.4 95 1021.5 12.1 S 12.1 0.0 0.0
12:59 16.2 15.4 95 1021.5 12.1 S 12.1 0.0 0.0
13:00 16.2 15.4 95 1021.3 12.1 S 12.1 0.0 0.0
13:01 16.2 15.1 93 1021.5 11.4 S 12.1 0.0 0.0
13:02 16.3 15.3 94 1021.5 11.4 SW 12.1 0.0 0.0
13:03 16.2 15.2 94 1021.4 13.0 SE 13.0 0.0 0.0
13:05 16.2 15.1 93 1021.5 10.7 NW 13.0 0.0 0.0
13:06 16.2 15.1 93 1021.3 13.0 S 13.0 0.0 0.0
13:07 16.2 15.1 93 1021.4 9.8 S 13.0 0.0 0.0
13:07 16.2 15.1 93 1021.4 9.8 S 13.0 0.0 0.0
13:09 16.2 15.1 93 1021.3 11.4 S 13.0 0.0 0.0
13:10 16.2 15.1 93 1021.4 11.4 S 13.0 0.0 0.0
13:10 16.2 15.1 93 1021.4 11.4 S 13.0 0.0 0.0
13:12 16.3 15.2 93 1021.3 11.4 S 13.0 0.0 0.0
13:13 16.2 15.1 93 1021.5 12.1 WNW 13.0 0.0 0.0
13:14 16.2 14.9 92 1021.3 13.6 S 13.6 0.0 0.0
13:15 16.2 14.9 92 1021.3 9.8 SE 13.6 0.0 0.0
13:16 16.2 14.9 92 1021.2 11.4 SE 13.6 0.0 0.0
13:17 16.3 15.0 92 1021.2 13.0 SW 13.6 0.0 0.0
13:18 16.3 15.3 94 1021.2 12.1 SE 13.6 0.0 0.0
13:19 16.3 15.3 94 1021.3 9.8 S 13.6 0.0 0.0
13:20 16.4 15.4 94 1021.2 11.4 S 13.6 0.0 0.0
13:20 16.4 15.4 94 1021.2 11.4 S 13.6 0.0 0.0
13:21 16.4 15.3 93 1021.1 13.0 S 13.6 0.0 0.0
13:22 16.4 15.3 93 1021.1 10.7 S 13.6 0.0 0.0
13:23 16.5 15.5 94 1021.0 10.7 S 13.6 0.0 0.0
13:24 16.5 15.4 93 1021.1 10.7 SE 13.6 0.0 0.0
13:26 16.5 15.2 92 1021.2 14.5 SE 14.5 0.0 0.0
13:27 16.5 15.2 92 1021.1 8.3 S 14.5 0.0 0.0
13:28 16.5 15.2 92 1021.2 13.6 S 14.5 0.0 0.0
13:29 16.5 15.0 91 1021.1 13.0 S 14.5 0.0 0.0
13:30 16.5 14.9 90 1021.1 10.7 S 14.5 0.0 0.0
13:31 16.5 15.0 91 1021.2 14.5 SW 14.5 0.0 0.0
13:32 16.5 15.0 91 1021.2 12.1 S 14.5 0.0 0.0
13:33 16.5 15.0 91 1021.2 13.0 S 14.5 0.0 0.0
13:34 16.4 14.8 90 1021.1 13.0 S 14.5 0.0 0.0
13:35 16.4 14.9 91 1021.2 15.2 S 15.2 0.0 0.0
13:36 16.4 14.9 91 1021.2 10.7 S 15.2 0.0 0.0
13:37 16.5 15.2 92 1021.1 9.2 SE 15.2 0.0 0.0
13:38 16.5 15.0 91 1021.2 15.2 SW 15.2 0.0 0.0
13:39 16.5 14.9 90 1021.2 11.4 NW 15.2 0.0 0.0
13:40 16.5 14.9 90 1021.2 13.6 NW 15.2 0.0 0.0
13:41 16.5 14.9 90 1021.2 9.8 S 15.2 0.0 0.0
13:42 16.5 14.9 90 1021.2 13.6 S 15.2 0.0 0.0
13:43 16.5 14.7 89 1021.3 13.0 S 15.2 0.0 0.0
13:44 16.5 14.9 90 1021.2 13.6 S 15.2 0.0 0.0
13:45 16.5 14.7 89 1021.2 13.0 S 15.2 0.0 0.0
13:46 16.5 14.7 89 1021.2 16.8 S 16.8 0.0 0.0
13:47 16.5 14.7 89 1021.2 14.5 S 16.8 0.0 0.0
13:48 16.5 14.5 88 1021.2 14.5 S 16.8 0.0 0.0
13:50 16.5 14.7 89 1021.1 14.5 SW 16.8 0.0 0.0
13:51 16.5 14.9 90 1021.1 9.8 SW 16.8 0.0 0.0
13:52 16.5 14.9 90 1021.1 11.4 S 16.8 0.0 0.0
13:53 16.5 15.0 91 1021.0 9.2 S 16.8 0.0 0.0
13:54 16.6 15.0 90 1021.1 13.0 S 16.8 0.0 0.0
13:55 16.6 15.0 90 1021.0 15.9 SW 16.8 0.0 0.0
13:56 16.7 15.1 90 1021.1 13.0 S 16.8 0.0 0.0
13:57 16.7 14.9 89 1021.0 15.9 S 15.9 0.0 0.0
13:58 16.6 15.0 90 1021.1 11.4 SW 15.9 0.0 0.0
13:59 16.6 15.0 90 1021.2 13.6 NW 15.9 0.0 0.0
14:00 16.6 15.0 90 1021.2 15.9 S 15.9 0.0 0.0
14:01 16.5 14.9 90 1021.2 13.6 SW 15.9 0.0 0.0
14:02 16.5 15.0 91 1021.0 11.4 S 15.9 0.0 0.0
14:03 16.5 15.2 92 1021.2 11.4 SW 15.9 0.0 0.0
14:04 16.5 15.0 91 1021.2 14.5 S 15.9 0.0 0.0
14:06 16.6 15.3 92 1021.2 12.1 E 15.9 0.0 0.0
14:07 16.6 15.3 92 1021.1 14.5 S 15.9 0.0 0.0
14:07 16.6 15.3 92 1021.1 14.5 S 15.9 0.0 0.0
14:09 16.6 15.1 91 1021.2 15.2 S 15.9 0.0 0.0
14:10 16.6 15.1 91 1021.2 12.1 SE 15.9 0.0 0.0
14:10 16.6 15.1 91 1021.2 12.1 SE 15.9 0.0 0.0
14:12 16.6 15.1 91 1021.1 14.5 S 15.2 0.0 0.0
14:13 16.6 15.3 92 1021.1 9.8 SW 15.2 0.0 0.0
14:14 16.6 15.3 92 1021.1 11.4 S 15.2 0.0 0.0
14:15 16.7 15.4 92 1021.1 14.5 SW 15.2 0.0 0.0
14:16 16.7 15.4 92 1021.1 12.1 S 15.2 0.0 0.0
14:17 16.7 15.4 92 1021.2 13.6 S 15.2 0.0 0.0
14:18 16.7 15.4 92 1021.2 13.0 S 15.2 0.0 0.0
14:18 16.7 15.4 92 1021.2 13.0 S 15.2 0.0 0.0
14:19 16.7 15.6 93 1021.1 9.2 SW 14.5 0.0 0.0
14:20 16.7 15.7 94 1021.1 11.4 SW 14.5 0.0 0.0
14:21 16.8 15.7 93 1021.1 13.0 S 14.5 0.0 0.0
14:22 16.8 15.7 93 1021.0 11.4 S 14.5 0.0 0.0
14:23 16.7 15.6 93 1021.2 14.5 SW 14.5 0.0 0.0
14:25 16.8 15.7 93 1021.0 13.0 NNE 14.5 0.0 0.0
14:26 16.8 15.7 93 1020.9 11.4 SW 14.5 0.0 0.0
14:27 16.8 15.7 93 1021.0 13.0 SE 14.5 0.0 0.0
14:28 16.8 15.7 93 1021.0 10.7 S 14.5 0.0 0.0
14:29 16.8 15.7 93 1021.0 13.0 S 14.5 0.0 0.0
14:30 16.8 15.7 93 1021.0 13.0 S 14.5 0.0 0.0
14:31 16.7 15.6 93 1020.9 10.7 SW 14.5 0.0 0.0
14:32 16.7 15.7 94 1021.0 12.1 W 14.5 0.0 0.0
14:33 16.7 15.7 94 1020.9 10.7 E 14.5 0.0 0.0
14:34 16.8 15.8 94 1020.9 12.1 S 13.6 0.0 0.0
14:35 16.8 15.8 94 1020.7 10.7 SE 13.0 0.0 0.0
14:36 16.8 15.8 94 1020.8 14.5 S 14.5 0.0 0.0
14:37 16.8 15.8 94 1020.8 13.6 W 14.5 0.0 0.0
14:38 16.8 15.7 93 1020.8 11.4 S 14.5 0.0 0.0
14:39 16.8 15.8 94 1020.9 13.0 SE 14.5 0.0 0.0
14:40 16.8 15.8 94 1020.8 15.2 S 15.2 0.0 0.0
14:41 16.8 15.7 93 1020.9 13.0 NW 15.2 0.0 0.0
14:42 16.8 15.7 93 1020.8 13.6 S 15.2 0.0 0.0
14:42 16.8 15.7 93 1020.8 13.6 S 15.2 0.0 0.0
14:43 16.8 15.7 93 1020.8 13.0 S 15.2 0.0 0.0
14:44 16.8 15.8 94 1020.9 13.0 S 15.2 0.0 0.0
14:45 16.8 15.7 93 1020.7 14.5 S 15.2 0.0 0.0
14:46 16.7 15.6 93 1020.9 13.0 SW 15.2 0.0 0.0
14:48 16.8 15.8 94 1020.7 13.6 NW 15.2 0.0 0.0
14:49 16.8 15.7 93 1020.7 12.1 N 15.2 0.0 0.0
14:50 16.8 15.8 94 1020.8 12.1 WSW 15.2 0.0 0.0
14:51 16.8 15.8 94 1020.7 9.8 SW 14.5 0.0 0.0
14:52 16.8 16.0 95 1020.6 10.7 SW 14.5 0.0 0.0
14:53 16.9 15.9 94 1020.7 10.7 SE 14.5 0.0 0.0
14:54 16.9 15.9 94 1020.6 13.6 SE 14.5 0.0 0.0
14:55 16.9 15.8 93 1020.6 13.6 S 14.5 0.0 0.0
14:56 16.9 15.8 93 1020.7 13.0 W 14.5 0.0 0.0
14:57 16.8 15.5 92 1020.7 15.2 S 15.2 0.0 0.0
14:58 16.8 15.5 92 1020.7 12.1 SE 15.2 0.0 0.0
14:59 16.8 15.5 92 1020.6 12.1 S 15.2 0.0 0.0
15:00 16.8 15.5 92 1020.7 12.1 S 15.2 0.0 0.0
15:01 16.8 15.7 93 1020.7 13.0 S 15.2 0.0 0.0
15:02 16.8 15.7 93 1020.8 13.0 SE 15.2 0.0 0.0
15:03 16.8 15.7 93 1020.8 14.5 S 15.2 0.0 0.0
15:03 16.8 15.7 93 1020.8 14.5 S 15.2 0.0 0.0
15:04 16.8 15.5 92 1020.7 17.4 S 17.4 0.0 0.0
15:05 16.8 15.5 92 1020.7 13.6 S 17.4 0.0 0.0
15:07 16.8 15.5 92 1020.7 10.7 S 17.4 0.0 0.0
15:07 16.8 15.5 92 1020.7 10.7 S 17.4 0.0 0.0
15:09 16.8 15.7 93 1020.7 12.1 S 17.4 0.0 0.0
15:10 16.8 15.7 93 1020.5 11.4 S 17.4 0.0 0.0
15:10 16.8 15.7 93 1020.5 11.4 S 17.4 0.0 0.0
15:12 16.8 15.7 93 1020.7 11.4 S 17.4 0.0 0.0
15:13 16.8 15.5 92 1020.7 14.5 S 17.4 0.0 0.0
15:14 16.8 15.5 92 1020.5 15.9 S 17.4 0.0 0.0
15:15 16.8 15.5 92 1020.7 12.1 NE 15.9 0.0 0.0
15:16 16.8 15.7 93 1020.6 13.6 S 15.9 0.0 0.0
15:16 16.8 15.7 93 1020.6 13.6 S 15.9 0.0 0.0
15:17 16.8 15.7 93 1020.7 13.0 S 15.9 0.0 0.0
15:18 16.8 15.7 93 1020.7 11.4 S 15.9 0.0 0.0
15:19 16.9 15.8 93 1020.5 12.1 S 15.9 0.0 0.0
15:20 16.9 15.8 93 1020.6 9.8 S 15.9 0.0 0.0
15:21 16.9 15.8 93 1020.7 10.7 S 15.9 0.0 0.0
15:23 17.0 15.7 92 1020.7 15.2 S 15.9 0.0 0.0
15:24 16.9 15.4 91 1020.6 15.9 S 15.9 0.0 0.0
15:25 16.8 15.3 91 1020.7 14.5 NNE 15.9 0.0 0.0
15:26 16.8 15.3 91 1020.7 12.1 S 15.9 0.0 0.0
15:27 16.8 15.3 91 1020.8 14.5 SE 15.9 0.0 0.0
15:28 16.8 15.3 91 1020.7 13.6 S 15.9 0.0 0.0
15:29 16.8 15.5 92 1020.6 14.5 SW 15.9 0.0 0.0
15:30 16.8 15.5 92 1020.7 11.4 S 15.9 0.0 0.0
15:31 16.8 15.5 92 1020.8 14.5 S 15.9 0.0 0.0
15:32 16.8 15.5 92 1020.7 11.4 SW 15.9 0.0 0.0
15:33 16.8 15.7 93 1020.8 14.5 S 15.9 0.0 0.0
15:34 16.9 15.8 93 1020.6 10.7 S 15.9 0.0 0.0
15:35 16.9 15.6 92 1020.7 9.8 S 14.5 0.0 0.0
15:36 16.9 15.8 93 1020.7 9.8 SE 14.5 0.0 0.0
15:37 16.9 15.8 93 1020.7 9.2 SE 14.5 0.0 0.0
15:38 17.0 15.9 93 1020.7 14.5 S 14.5 0.0 0.0
15:38 17.0 15.9 93 1020.7 14.5 S 14.5 0.0 0.0
15:39 17.0 15.7 92 1020.7 13.0 S 14.5 0.0 0.0
15:40 17.0 15.7 92 1020.7 13.6 SE 14.5 0.0 0.0
15:41 17.0 15.7 92 1020.7 13.0 S 14.5 0.0 0.0
15:43 17.0 15.7 92 1020.6 14.5 SW 14.5 0.0 0.0
15:44 17.0 15.5 91 1020.6 15.9 WSW 15.9 0.0 0.0
15:45 17.0 15.5 91 1020.5 11.4 S 15.9 0.0 0.0
15:46 16.9 15.4 91 1020.6 12.1 S 15.9 0.0 0.0
15:47 16.9 15.4 91 1020.6 12.1 SE 15.9 0.0 0.0
15:48 16.9 15.6 92 1020.5 9.2 S 15.9 0.0 0.0
15:49 16.9 15.6 92 1020.5 13.6 S 15.9 0.0 0.0
15:50 16.9 15.4 91 1020.6 13.0 SE 15.9 0.0 0.0
15:51 17.0 15.5 91 1020.6 11.4 S 15.9 0.0 0.0
15:52 17.0 15.5 91 1020.5 9.8 S 15.9 0.0 0.0
15:53 17.0 15.5 91 1020.7 12.1 SE 15.9 0.0 0.0
15:54 16.9 15.3 90 1020.6 12.1 S 13.6 0.0 0.0
15:55 16.9 15.3 90 1020.7 11.4 S 13.6 0.0 0.0
15:56 16.8 15.2 90 1020.5 13.6 SE 13.6 0.0 0.0
15:57 16.8 15.2 90 1020.7 12.1 S 13.6 0.0 0.0
15:57 16.8 15.2 90 1020.7 12.1 S 13.6 0.0 0.0
15:58 16.8 15.2 90 1020.7 9.8 S 13.6 0.0 0.0
15:59 16.8 15.3 91 1020.7 13.6 N 15.9 0.0 0.0
16:00 16.8 15.3 91 1020.8 13.6 N 15.9 0.0 0.0
16:01 16.7 15.2 91 1020.6 14.5 S 15.9 0.0 0.0
16:02 16.6 15.0 90 1020.6 14.5 S 15.9 0.0 0.0
16:03 16.5 15.0 91 1020.6 9.2 S 15.9 0.0 0.0
16:05 16.5 15.0 91 1020.7 11.4 S 15.9 0.0 0.0
16:06 16.4 14.9 91 1020.8 13.0 S 15.9 0.0 0.0
16:07 16.3 14.8 91 1020.7 13.0 S 15.9 0.0 0.0
16:07 16.3 14.8 91 1020.7 13.0 S 15.9 0.0 0.0
16:09 16.2 14.7 91 1020.6 14.5 NNE 15.9 0.0 0.0
16:09 16.2 14.7 91 1020.6 14.5 NNE 15.9 0.0 0.0
16:10 16.2 14.7 91 1020.6 12.1 SE 14.5 0.0 0.0
16:12 16.1 14.8 92 1020.7 10.7 S 14.5 0.0 0.0
16:13 16.0 14.7 92 1020.7 9.2 SW 14.5 0.0 0.0
16:14 16.0 14.7 92 1020.7 11.4 SW 14.5 0.0 0.0
16:15 16.0 14.9 93 1020.8 11.4 SE 14.5 0.0 0.0
16:15 16.0 14.9 93 1020.8 11.4 SE 14.5 0.0 0.0
16:16 16.0 14.9 93 1020.7 8.3 W 14.5 0.0 0.0
16:17 15.9 14.8 93 1020.7 12.1 S 14.5 0.0 0.0
16:18 15.9 14.8 93 1020.8 10.7 S 14.5 0.0 0.0
16:19 15.9 14.8 93 1020.7 9.8 S 14.5 0.0 0.0
16:20 15.8 14.7 93 1020.8 11.4 S 13.0 0.0 0.0
16:21 15.8 14.8 94 1020.6 11.4 SE 13.0 0.0 0.0
16:22 15.8 14.8 94 1020.7 10.7 S 13.0 0.0 0.0
16:24 15.7 14.7 94 1020.7 12.1 S 13.0 0.0 0.0
16:25 15.7 14.7 94 1020.7 13.0 S 13.0 0.0 0.0
16:26 15.7 14.9 95 1020.6 11.4 S 13.0 0.0 0.0
16:27 15.7 14.9 95 1020.7 10.7 S 13.0 0.0 0.0
16:28 15.7 14.9 95 1020.7 13.0 S 13.0 0.0 0.0
16:29 15.7 15.1 96 1020.6 9.8 SE 13.0 0.0 0.0
16:30 15.6 15.0 96 1020.5 13.0 S 13.0 0.0 0.0
16:31 15.6 15.0 96 1020.7 8.3 S 13.0 0.0 0.0
16:32 15.6 15.0 96 1020.6 9.8 S 13.0 0.0 0.0
16:33 15.6 15.1 97 1020.6 8.3 S 13.0 0.0 0.0
16:34 15.6 15.1 97 1020.6 7.6 S 13.0 0.0 0.0
16:35 15.6 15.1 97 1020.7 9.2 S 13.0 0.0 0.0
16:36 15.6 15.1 97 1020.7 13.0 S 13.0 0.0 0.0
16:37 15.6 15.1 97 1020.7 10.7 S 13.0 0.0 0.0
16:38 15.6 15.3 98 1020.6 8.3 W 13.0 0.0 0.0
16:39 15.5 15.2 98 1020.6 9.8 SE 13.0 0.0 0.0
16:40 15.5 15.2 98 1020.6 9.2 S 13.0 0.0 0.0
16:41 15.5 15.2 98 1020.6 8.3 S 13.0 0.0 0.0
16:42 15.5 15.4 99 1020.7 10.7 SW 13.0 0.0 0.0
16:43 15.5 15.4 99 1020.5 7.6 SE 13.0 0.0 0.0
16:44 15.5 15.4 99 1020.5 7.6 S 13.0 0.0 0.0
16:45 15.5 15.4 99 1020.6 7.6 S 13.0 0.0 0.0
16:46 15.5 15.4 99 1020.6 6.9 S 10.7 0.0 0.0
16:46 15.5 15.4 99 1020.6 6.9 S 10.7 0.0 0.0
16:47 15.5 15.4 99 1020.5 7.6 S 10.7 0.0 0.0
16:48 15.5 15.4 99 1020.6 8.3 SE 10.7 0.0 0.0
16:49 15.5 15.4 99 1020.6 8.3 NW 10.7 0.0 0.0
16:50 15.4 15.3 99 1020.5 10.7 SW 10.7 0.0 0.0
16:51 15.4 15.3 99 1020.5 8.3 SE 10.7 0.0 0.0
16:52 15.4 15.3 99 1020.6 9.2 S 10.7 0.0 0.0
16:54 15.4 15.3 99 1020.5 8.3 SE 10.7 0.0 0.0
16:55 15.4 15.3 99 1020.4 6.9 SE 10.7 0.0 0.0
16:56 15.4 15.3 99 1020.6 6.9 S 10.7 0.0 0.0
16:57 15.4 15.3 99 1020.6 7.6 S 10.7 0.0 0.0
16:58 15.4 15.3 99 1020.6 11.4 S 11.4 0.0 0.0
16:59 15.4 15.3 99 1020.6 9.8 S 11.4 0.0 0.0
17:00 15.3 15.2 99 1020.6 9.2 S 11.4 0.0 0.0
17:01 15.3 15.2 99 1020.5 9.2 S 11.4 0.0 0.0
17:02 15.3 15.2 99 1020.7 12.1 S 12.1 0.0 0.0
17:03 15.3 15.2 99 1020.6 8.3 S 12.1 0.0 0.0
17:04 15.3 15.2 99 1020.5 9.2 S 12.1 0.0 0.0
17:05 15.3 15.2 99 1020.6 6.9 SE 12.1 0.0 0.0
17:06 15.3 15.2 99 1020.5 9.8 S 12.1 0.0 0.0
17:06 15.3 15.2 99 1020.5 9.8 S 12.1 0.0 0.0
17:08 15.3 15.2 99 1020.6 7.6 S 12.1 0.0 0.0
17:09 15.3 15.2 99 1020.6 9.8 S 12.1 0.0 0.0
17:09 15.3 15.2 99 1020.6 9.8 S 12.1 0.0 0.0
17:11 15.3 15.2 99 1020.4 11.4 S 12.1 0.0 0.0
17:12 15.3 15.2 99 1020.5 9.2 S 11.4 0.0 0.0
17:12 15.3 15.2 99 1020.5 9.2 S 11.4 0.0 0.0
17:13 15.3 15.2 99 1020.5 8.3 S 11.4 0.0 0.0
17:14 15.3 15.2 99 1020.6 9.8 S 11.4 0.0 0.0
17:15 15.3 15.2 99 1020.5 6.9 SE 11.4 0.0 0.0
17:16 15.2 15.1 99 1020.5 9.8 S 11.4 0.0 0.0
17:17 15.2 15.1 99 1020.6 8.3 S 11.4 0.0 0.0
17:18 15.2 15.1 99 1020.5 7.6 S 11.4 0.0 0.0
17:19 15.2 15.1 99 1020.5 9.2 S 11.4 0.0 0.0
17:21 15.2 15.1 99 1020.6 9.8 NNW 11.4 0.0 0.0
17:22 15.2 15.1 99 1020.6 9.8 S 9.8 0.0 0.0
17:23 15.2 15.1 99 1020.6 11.4 SW 11.4 0.0 0.0
17:24 15.2 15.1 99 1020.7 6.9 S 11.4 0.0 0.0
17:25 15.2 15.1 99 1020.6 7.6 S 11.4 0.0 0.0
17:26 15.2 15.1 99 1020.7 10.7 S 11.4 0.0 0.0
17:27 15.2 15.1 99 1020.6 12.1 S 12.1 0.0 0.0
17:28 15.2 15.1 99 1020.7 9.2 S 12.1 0.0 0.0
17:29 15.1 15.0 99 1020.7 8.3 S 12.1 0.0 0.0
17:30 15.2 15.1 99 1020.6 7.6 WSW 12.1 0.0 0.0
17:31 15.2 15.1 99 1020.7 12.1 S 12.1 0.0 0.0
17:32 15.1 15.0 99 1020.6 11.4 S 12.1 0.0 0.0
17:33 15.1 15.0 99 1020.6 10.7 S 12.1 0.0 0.0
17:34 15.1 15.0 99 1020.6 10.7 S 12.1 0.0 0.0
17:35 15.1 15.0 99 1020.4 10.7 S 12.1 0.0 0.0
17:36 15.1 15.0 99 1020.5 9.2 S 12.1 0.0 0.0
17:37 15.1 15.0 99 1020.5 8.3 S 12.1 0.0 0.0
17:38 15.1 15.0 99 1020.5 6.0 SE 12.1 0.0 0.0
17:39 15.1 15.0 99 1020.4 8.3 SE 12.1 0.0 0.0
17:40 15.1 15.0 99 1020.5 6.9 S 12.1 0.0 0.0
17:41 15.1 15.0 99 1020.5 10.7 S 11.4 0.0 0.0
17:42 15.1 15.0 99 1020.5 9.8 SW 10.7 0.0 0.0
17:42 15.1 15.0 99 1020.5 9.8 SW 10.7 0.0 0.0
17:44 15.1 15.0 99 1020.5 7.6 SW 10.7 0.0 0.0
17:44 15.1 15.0 99 1020.5 7.6 SW 10.7 0.0 0.0
17:45 15.0 14.9 99 1020.4 6.9 S 10.7 0.0 0.0
17:46 15.0 14.9 99 1020.5 8.3 S 10.7 0.0 0.0
17:47 15.0 14.9 99 1020.5 9.2 S 10.7 0.0 0.0
17:48 15.0 14.9 99 1020.6 9.2 S 10.7 0.0 0.0
17:49 15.0 14.9 99 1020.6 9.2 S 10.7 0.0 0.0
17:50 15.0 14.9 99 1020.7 8.3 S 10.7 0.0 0.0
17:52 15.0 14.9 99 1020.5 6.0 S 9.8 0.0 0.0
17:53 15.0 14.9 99 1020.5 7.6 SE 9.2 0.0 0.0
17:54 15.0 14.9 99 1020.6 10.7 S 10.7 0.0 0.0
17:55 15.0 14.9 99 1020.5 10.7 SE 10.7 0.0 0.0
17:56 15.0 14.9 99 1020.7 10.7 S 10.7 0.0 0.0
17:57 14.9 14.8 99 1020.6 9.8 S 10.7 0.0 0.0
17:58 14.9 14.8 99 1020.5 9.8 S 10.7 0.0 0.0
17:59 14.9 14.8 99 1020.7 7.6 S 10.7 0.0 0.0
18:00 14.9 14.8 99 1020.4 9.8 S 10.7 0.0 0.0
18:01 14.9 14.8 99 1020.6 13.6 SE 13.6 0.0 0.0
18:02 15.0 14.9 99 1020.5 9.2 S 13.6 0.0 0.0
18:03 14.9 14.8 99 1020.4 8.3 WSW 13.6 0.0 0.0
18:04 14.9 14.8 99 1020.5 7.6 S 13.6 0.0 0.0
18:05 14.9 14.8 99 1020.4 10.7 S 13.6 0.0 0.0
18:05 14.9 14.8 99 1020.4 10.7 S 13.6 0.0 0.0
18:07 14.9 14.8 99 1020.5 8.3 SE 13.6 0.0 0.0
18:08 14.9 14.8 99 1020.6 9.8 SE 13.6 0.0 0.0
18:08 14.9 14.8 99 1020.6 9.8 SE 13.6 0.0 0.0
18:10 14.9 14.8 99 1020.5 8.3 SE 13.6 0.0 0.0
18:10 14.9 14.8 99 1020.5 8.3 SE 13.6 0.0 0.0
18:11 14.9 14.8 99 1020.5 8.3 SE 13.6 0.0 0.0
18:13 14.9 14.8 99 1020.7 7.6 SE 11.4 0.0 0.0
18:14 14.9 14.8 99 1020.7 8.3 SE 11.4 0.0 0.0
18:15 14.9 14.8 99 1020.8 11.4 SE 11.4 0.0 0.0
18:16 14.9 14.8 99 1020.6 12.1 S 12.1 0.0 0.0
18:17 14.8 14.7 99 1020.6 9.2 S 12.1 0.0 0.0
18:18 14.9 14.8 99 1020.6 7.6 S 12.1 0.0 0.0
18:19 14.8 14.7 99 1020.6 9.2 SW 12.1 0.0 0.0
18:20 14.8 14.7 99 1020.5 9.8 SE 12.1 0.0 0.0
18:21 14.8 14.7 99 1020.5 8.3 SE 12.1 0.0 0.0
18:22 14.8 14.7 99 1020.7 14.5 SW 14.5 0.0 0.0
18:23 14.8 14.7 99 1020.6 9.2 S 14.5 0.0 0.0
18:23 14.8 14.7 99 1020.6 9.2 S 14.5 0.0 0.0
18:24 14.8 14.7 99 1020.6 8.3 SE 14.5 0.0 0.0
18:25 14.8 14.7 99 1020.6 9.2 SE 14.5 0.0 0.0
18:26 14.8 14.7 99 1020.6 6.9 S 14.5 0.0 0.0
18:27 14.8 14.7 99 1020.5 10.7 S 14.5 0.0 0.0
18:28 14.8 14.7 99 1020.6 10.7 SW 14.5 0.0 0.0
18:29 14.8 14.7 99 1020.6 8.3 S 14.5 0.0 0.0
18:30 14.8 14.7 99 1020.7 11.4 S 14.5 0.0 0.0
18:31 14.8 14.7 99 1020.6 9.8 S 14.5 0.0 0.0
18:33 14.8 14.7 99 1020.6 13.6 S 13.6 0.0 0.0
18:34 14.8 14.7 99 1020.7 13.0 S 13.6 0.0 0.0
18:35 14.8 14.7 99 1020.6 10.7 S 13.6 0.0 0.0
18:36 14.7 14.6 99 1020.7 10.7 S 13.6 0.0 0.0
18:37 14.8 14.7 99 1020.5 11.4 S 13.6 0.0 0.0
18:38 14.7 14.6 99 1020.6 9.8 S 13.6 0.0 0.0
18:39 14.8 14.7 99 1020.7 12.1 S 13.6 0.0 0.0
18:40 14.7 14.6 99 1020.7 9.8 S 13.6 0.0 0.0
18:41 14.7 14.6 99 1020.7 12.1 SE 13.6 0.0 0.0
18:42 14.7 14.6 99 1020.7 12.1 S 13.6 0.0 0.0
18:43 14.7 14.6 99 1020.8 10.7 S 13.6 0.0 0.0
18:44 14.7 14.6 99 1020.6 10.7 S 13.0 0.0 0.0
18:45 14.7 14.6 99 1020.7 12.1 S 12.1 0.0 0.0
18:46 14.7 14.6 99 1020.7 12.1 S 12.1 0.0 0.0
18:47 14.7 14.6 99 1020.7 11.4 S 12.1 0.0 0.0
18:48 14.7 14.6 99 1020.7 10.7 N 12.1 0.0 0.0
18:49 14.7 14.6 99 1020.7 11.4 SE 12.1 0.0 0.0
18:50 14.6 14.5 99 1020.6 8.3 NNW 12.1 0.0 0.0
18:51 14.6 14.5 99 1020.7 7.6 S 12.1 0.0 0.0
18:51 14.6 14.5 99 1020.7 7.6 S 12.1 0.0 0.0
18:52 14.6 14.5 99 1020.7 11.4 S 12.1 0.0 0.0
18:53 14.6 14.5 99 1020.7 11.4 S 12.1 0.0 0.0
18:54 14.6 14.5 99 1020.7 13.0 SE 13.0 0.0 0.0
18:55 14.6 14.5 99 1020.7 9.2 S 13.0 0.0 0.0
18:56 14.6 14.5 99 1020.7 11.4 S 13.0 0.0 0.0
18:57 14.6 14.5 99 1020.5 11.4 SSW 13.0 0.0 0.0
18:58 14.6 14.5 99 1020.6 12.1 S 13.0 0.0 0.0
18:59 14.6 14.5 99 1020.7 9.8 S 13.0 0.0 0.0
19:00 14.6 14.5 99 1020.8 9.8 S 13.0 0.0 0.0
19:02 14.6 14.5 99 1020.7 9.8 S 13.0 0.0 0.0
19:03 14.6 14.5 99 1020.7 9.8 S 13.0 0.0 0.0
19:04 14.6 14.5 99 1020.5 9.8 S 13.0 0.0 0.0
19:05 14.6 14.5 99 1020.7 9.2 S 12.1 0.0 0.0
19:06 14.6 14.5 99 1020.8 12.1 S 12.1 0.0 0.0
19:06 14.6 14.5 99 1020.8 12.1 S 12.1 0.0 0.0
19:07 14.6 14.5 99 1020.7 7.6 S 12.1 0.0 0.0
19:09 14.6 14.5 99 1020.8 13.6 S 13.6 0.0 0.0
19:09 14.6 14.5 99 1020.8 13.6 S 13.6 0.0 0.0
19:11 14.6 14.5 99 1020.8 12.1 SE 13.6 0.0 0.0
19:11 14.6 14.5 99 1020.8 12.1 SE 13.6 0.0 0.0
19:12 14.6 14.5 99 1020.7 17.4 S 17.4 0.0 0.0
19:14 14.6 14.5 99 1020.7 15.9 S 17.4 0.0 0.0
19:15 14.6 14.5 99 1020.7 7.6 S 17.4 0.0 0.0
19:16 14.6 14.5 99 1020.7 10.7 S 17.4 0.0 0.0
19:17 14.6 14.5 99 1020.7 12.1 S 17.4 0.0 0.0
19:18 14.6 14.5 99 1020.7 10.7 S 17.4 0.0 0.0
19:19 14.6 14.5 99 1020.8 11.4 SE 17.4 0.0 0.0
19:20 14.6 14.5 99 1020.7 11.4 W 17.4 0.0 0.0
19:21 14.6 14.5 99 1020.8 10.7 S 17.4 0.0 0.0
19:21 14.6 14.5 99 1020.8 10.7 S 17.4 0.0 0.0
19:22 14.6 14.5 99 1020.6 9.8 S 17.4 0.0 0.0
19:23 14.6 14.5 99 1020.7 12.1 S 15.9 0.0 0.0
19:24 14.6 14.5 99 1020.6 14.5 SE 14.5 0.0 0.0
19:26 14.6 14.5 99 1020.7 12.1 S 14.5 0.0 0.0
19:27 14.6 14.5 99 1020.6 13.0 S 14.5 0.0 0.0
19:28 14.6 14.5 99 1020.5 11.4 S 14.5 0.0 0.0
19:29 14.6 14.5 99 1020.6 11.4 S 14.5 0.0 0.0
19:30 14.6 14.5 99 1020.6 12.1 S 14.5 0.0 0.0
19:30 14.6 14.5 99 1020.6 12.1 S 14.5 0.0 0.0
19:31 14.6 14.5 99 1020.5 9.2 S 14.5 0.0 0.0
19:32 14.6 14.5 99 1020.6 12.1 S 14.5 0.0 0.0
19:34 14.6 14.5 99 1020.6 10.7 S 14.5 0.0 0.0
19:35 14.6 14.5 99 1020.6 9.8 SE 13.0 0.0 0.0
19:36 14.6 14.5 99 1020.6 9.2 S 13.0 0.0 0.0
19:37 14.6 14.5 99 1020.7 9.2 NW 12.1 0.0 0.0
19:37 14.6 14.5 99 1020.7 9.2 NW 12.1 0.0 0.0
19:37 14.6 14.5 99 1020.7 9.2 NW 12.1 0.0 0.0
19:40 14.7 14.6 99 1020.7 9.2 S 13.0 0.0 0.0
19:40 14.7 14.6 99 1020.7 9.2 S 13.0 0.0 0.0
19:41 14.6 14.5 99 1020.5 8.3 S 13.0 0.0 0.0
19:43 14.7 14.6 99 1020.7 7.6 S 13.0 0.0 0.0
19:45 14.7 14.6 99 1020.7 9.2 S 13.0 0.0 0.0
19:46 14.7 14.6 99 1020.7 11.4 S 14.5 0.0 0.0
19:46 14.7 14.6 99 1020.7 11.4 S 14.5 0.0 0.0
19:47 14.7 14.6 99 1020.7 10.7 S 14.5 0.0 0.0
19:48 14.7 14.6 99 1020.6 13.6 SE 14.5 0.0 0.0
19:49 14.7 14.6 99 1020.7 10.7 SE 14.5 0.0 0.0
19:51 14.7 14.6 99 1020.7 9.2 S 14.5 0.0 0.0
19:52 14.7 14.6 99 1020.8 14.5 S 14.5 0.0 0.0
19:53 14.7 14.6 99 1020.7 13.0 S 14.5 0.0 0.0
19:54 14.7 14.6 99 1020.7 15.2 S 15.2 0.0 0.0
19:55 14.7 14.6 99 1020.7 9.2 S 15.2 0.0 0.0
19:56 14.7 14.6 99 1020.8 12.1 S 15.2 0.0 0.0
19:56 14.7 14.6 99 1020.8 12.1 S 15.2 0.0 0.0
19:57 14.7 14.6 99 1020.7 6.9 S 15.2 0.0 0.0
19:58 14.7 14.6 99 1020.7 13.6 S 15.2 0.0 0.0
20:00 14.7 14.6 99 1020.7 11.4 S 15.2 0.0 0.0
20:01 14.7 14.6 99 1020.6 11.4 S 15.2 0.0 0.0
20:02 14.7 14.6 99 1020.6 11.4 S 15.2 0.0 0.0
20:03 14.7 14.6 99 1020.7 11.4 S 15.2 0.0 0.0
20:04 14.7 14.6 99 1020.7 11.4 S 15.2 0.0 0.0
20:05 14.8 14.7 99 1020.7 10.7 S 13.6 0.0 0.0
20:05 14.8 14.7 99 1020.7 10.7 S 13.6 0.0 0.0
20:07 14.8 14.7 99 1020.7 12.1 S 13.6 0.0 0.0
20:08 14.8 14.7 99 1020.7 13.0 WSW 13.6 0.0 0.0
20:08 14.8 14.7 99 1020.7 13.0 WSW 13.6 0.0 0.0
20:10 14.8 14.7 99 1020.7 11.4 S 13.6 0.0 0.0
20:12 14.8 14.7 99 1020.7 7.6 SE 13.6 0.0 0.0
20:12 14.8 14.7 99 1020.7 7.6 SE 13.6 0.0 0.0
20:13 14.7 14.6 99 1020.7 7.6 S 13.6 0.0 0.0
20:14 14.7 14.6 99 1020.6 10.7 S 13.6 0.0 0.0
20:14 14.7 14.6 99 1020.6 10.7 S 13.6 0.0 0.0
20:16 14.8 14.7 99 1020.5 9.2 S 13.6 0.0 0.0
20:17 14.8 14.7 99 1020.6 10.7 S 13.6 0.0 0.0
20:18 14.8 14.7 99 1020.6 13.0 S 13.6 0.0 0.0
20:19 14.8 14.7 99 1020.6 9.8 S 13.6 0.0 0.0
20:20 14.8 14.7 99 1020.5 15.9 S 15.9 0.0 0.0
20:22 14.8 14.7 99 1020.7 11.4 S 15.9 0.0 0.0
20:22 14.8 14.7 99 1020.7 11.4 S 15.9 0.0 0.0
20:23 14.8 14.7 99 1020.6 10.7 S 15.9 0.0 0.0
20:24 14.8 14.7 99 1020.6 11.4 S 15.9 0.0 0.0
20:25 14.8 14.7 99 1020.6 14.5 SE 15.9 0.0 0.0
20:26 14.8 14.7 99 1020.6 13.0 SW 15.9 0.0 0.0
20:27 14.8 14.7 99 1020.7 11.4 NNE 15.9 0.0 0.0
20:29 14.8 14.7 99 1020.6 14.5 S 15.9 0.0 0.0
20:29 14.8 14.7 99 1020.6 14.5 S 15.9 0.0 0.0
20:30 14.8 14.7 99 1020.6 11.4 SE 15.9 0.0 0.0
20:31 14.8 14.7 99 1020.5 9.8 S 15.2 0.0 0.0
20:32 14.8 14.7 99 1020.6 9.8 S 15.2 0.0 0.0
20:34 14.8 14.7 99 1020.6 12.1 W 15.2 0.0 0.0
20:34 14.8 14.7 99 1020.6 12.1 W 15.2 0.0 0.0
20:35 14.8 14.7 99 1020.6 12.1 S 15.2 0.0 0.0
20:36 14.8 14.7 99 1020.5 11.4 S 15.2 0.0 0.0
20:37 14.8 14.7 99 1020.4 9.2 S 15.2 0.0 0.0
20:39 14.8 14.7 99 1020.6 10.7 SE 14.5 0.0 0.0
20:40 14.8 14.7 99 1020.7 11.4 S 13.0 0.0 0.0
20:40 14.8 14.7 99 1020.7 11.4 S 13.0 0.0 0.0
20:41 14.8 14.7 99 1020.8 19.0 S 19.0 0.0 0.0
20:42 14.8 14.7 99 1020.8 13.6 S 19.0 0.0 0.0
20:43 14.8 14.7 99 1020.7 14.5 SE 19.0 0.0 0.0
20:44 14.9 14.8 99 1020.8 14.5 SE 19.0 0.0 0.0
20:45 14.9 14.8 99 1020.8 15.9 W 19.0 0.0 0.0
20:46 14.9 14.8 99 1020.7 11.4 S 19.0 0.0 0.0
20:48 14.9 14.8 99 1020.7 10.7 S 19.0 0.0 0.0
20:48 14.9 14.8 99 1020.7 10.7 S 19.0 0.0 0.0
20:49 14.9 14.8 99 1020.8 11.4 S 19.0 0.0 0.0
20:50 14.9 14.8 99 1020.6 9.8 S 19.0 0.0 0.0
20:51 14.9 14.8 99 1020.7 7.6 SE 19.0 0.0 0.0
20:52 14.9 14.8 99 1020.7 13.6 S 15.9 0.0 0.0
20:53 14.9 14.8 99 1020.7 11.4 SE 15.9 0.0 0.0
20:54 14.9 14.8 99 1020.7 11.4 S 15.9 0.0 0.0
20:55 14.9 14.8 99 1020.7 7.6 S 15.9 0.0 0.0
20:56 14.9 14.8 99 1020.7 12.1 SE 13.6 0.0 0.0
20:57 15.0 14.9 99 1020.7 11.4 S 13.6 0.0 0.0
20:59 14.9 14.8 99 1020.6 11.4 NW 13.6 0.0 0.0
20:59 14.9 14.8 99 1020.6 11.4 NW 13.6 0.0 0.0
21:00 14.9 14.8 99 1020.7 10.7 S 13.6 0.0 0.0
21:01 14.9 14.8 99 1020.6 10.7 S 13.6 0.0 0.0
21:02 14.9 14.8 99 1020.7 10.7 S 13.0 0.0 0.0
21:03 14.9 14.8 99 1020.7 10.7 S 12.1 0.0 0.0
21:04 14.9 14.8 99 1020.7 10.7 S 12.1 0.0 0.0
21:06 15.0 14.9 99 1020.7 9.2 SE 12.1 0.0 0.0
21:06 15.0 14.9 99 1020.7 9.2 SE 12.1 0.0 0.0
21:07 15.0 14.9 99 1020.6 9.8 S 12.1 0.0 0.0
21:08 15.0 14.9 99 1020.7 11.4 S 12.1 0.0 0.0
21:08 15.0 14.9 99 1020.7 11.4 S 12.1 0.0 0.0
21:10 15.0 14.9 99 1020.7 11.4 NW 11.4 0.0 0.0
21:10 15.0 14.9 99 1020.7 11.4 NW 11.4 0.0 0.0
21:12 15.0 14.9 99 1020.7 7.6 S 11.4 0.0 0.0
21:13 15.0 14.9 99 1020.7 12.1 S 12.1 0.0 0.0
21:13 15.0 14.9 99 1020.7 12.1 S 12.1 0.0 0.0
21:15 15.0 14.9 99 1020.8 10.7 WSW 12.1 0.0 0.0
21:16 15.0 14.9 99 1020.7 9.8 S 12.1 0.0 0.0
21:17 15.0 14.9 99 1020.7 8.3 W 12.1 0.0 0.0
21:19 15.0 14.9 99 1020.7 10.7 S 13.0 0.0 0.0
21:19 15.0 14.9 99 1020.7 10.7 S 13.0 0.0 0.0
21:20 15.0 14.9 99 1020.7 9.8 SE 13.0 0.0 0.0
21:21 15.0 14.9 99 1020.7 9.2 SE 13.0 0.0 0.0
21:22 15.0 14.9 99 1020.7 9.8 S 13.0 0.0 0.0
21:23 15.1 15.0 99 1020.7 15.9 S 15.9 0.0 0.0
21:24 15.1 15.0 99 1020.8 12.1 SE 15.9 0.0 0.0
21:24 15.1 15.0 99 1020.8 12.1 SE 15.9 0.0 0.0
21:26 15.1 15.0 99 1020.6 15.2 S 15.9 0.0 0.0
21:27 15.1 15.0 99 1020.6 12.1 S 15.9 0.0 0.0
21:28 15.1 15.0 99 1020.7 13.6 S 15.9 0.0 0.0
21:29 15.2 15.1 99 1020.7 18.3 S 18.3 0.0 0.0
21:31 15.2 15.1 99 1020.6 9.2 S 19.7 0.0 0.0
21:31 15.2 15.1 99 1020.6 9.2 S 19.7 0.0 0.0
21:32 15.2 15.1 99 1020.6 13.0 S 19.7 0.0 0.0
21:33 15.2 15.1 99 1020.7 15.2 SE 19.7 0.0 0.0
21:34 15.2 15.1 99 1020.7 12.1 S 19.7 0.0 0.0
21:35 15.2 15.1 99 1020.7 12.1 SE 19.7 0.0 0.0
21:36 15.2 15.1 99 1020.8 10.7 S 19.7 0.0 0.0
21:37 15.2 15.1 99 1020.7 13.0 S 19.7 0.0 0.0
21:38 15.2 15.1 99 1020.6 14.5 SE 19.7 0.0 0.0
21:40 15.2 15.1 99 1020.6 13.0 S 19.7 0.0 0.0
21:40 15.2 15.1 99 1020.6 13.0 S 19.7 0.0 0.0
21:41 15.2 15.1 99 1020.6 12.1 S 15.2 0.0 0.0
21:41 15.2 15.1 99 1020.6 12.1 S 15.2 0.0 0.0
21:43 15.2 15.1 99 1020.6 9.8 S 15.2 0.0 0.0
21:44 15.2 15.1 99 1020.7 14.5 S 14.5 0.0 0.0
21:45 15.2 15.1 99 1020.6 13.0 S 14.5 0.0 0.0
21:46 15.2 15.1 99 1020.6 11.4 S 14.5 0.0 0.0
21:48 15.2 15.1 99 1020.7 13.6 S 14.5 0.0 0.0
21:48 15.2 15.1 99 1020.7 13.6 S 14.5 0.0 0.0
21:49 15.2 15.1 99 1020.7 9.8 S 14.5 0.0 0.0
21:49 15.2 15.1 99 1020.7 9.8 S 14.5 0.0 0.0
21:51 15.2 15.1 99 1020.6 11.4 SE 14.5 0.0 0.0
21:52 15.2 15.1 99 1020.6 13.6 WSW 14.5 0.0 0.0
21:53 15.2 15.1 99 1020.7 14.5 S 14.5 0.0 0.0
21:55 15.2 15.1 99 1020.7 15.2 S 15.2 0.0 0.0
21:55 15.2 15.1 99 1020.7 15.2 S 15.2 0.0 0.0
21:56 15.2 15.1 99 1020.7 14.5 S 15.2 0.0 0.0
21:57 15.2 15.1 99 1020.6 15.2 S 15.2 0.0 0.0
21:58 15.2 15.1 99 1020.4 16.8 SE 16.8 0.0 0.0
21:59 15.2 15.1 99 1020.6 13.6 SE 16.8 0.0 0.0
22:00 15.2 15.1 99 1020.6 10.7 SE 16.8 0.0 0.0
22:01 15.2 15.1 99 1020.6 12.1 WSW 16.8 0.0 0.0
22:02 15.2 15.1 99 1020.7 14.5 S 16.8 0.0 0.0
22:04 15.2 15.1 99 1020.5 13.0 NW 16.8 0.0 0.0
22:05 15.2 15.1 99 1020.5 13.6 S 16.8 0.0 0.0
22:05 15.2 15.1 99 1020.5 13.6 S 16.8 0.0 0.0
22:06 15.2 15.1 99 1020.7 11.4 NW 16.8 0.0 0.0
22:07 15.2 15.1 99 1020.7 13.0 S 16.8 0.0 0.0
22:07 15.2 15.1 99 1020.7 13.0 S 16.8 0.0 0.0
22:09 15.2 15.1 99 1020.7 15.2 S 15.9 0.0 0.0
22:10 15.2 15.1 99 1020.8 12.1 WSW 15.9 0.0 0.0
22:10 15.2 15.1 99 1020.8 12.1 WSW 15.9 0.0 0.0
22:12 15.2 15.1 99 1020.5 13.6 SE 15.9 0.0 0.0
22:12 15.2 15.1 99 1020.5 13.6 SE 15.9 0.0 0.0
22:14 15.2 15.1 99 1020.7 16.8 S 16.8 0.0 0.0
22:15 15.2 15.1 99 1020.6 12.1 S 16.8 0.0 0.0
22:15 15.2 15.1 99 1020.6 12.1 S 16.8 0.0 0.0
22:17 15.3 15.2 99 1020.7 16.8 S 16.8 0.0 0.0
22:18 15.3 15.2 99 1020.4 15.9 SSW 16.8 0.0 0.0
22:18 15.3 15.2 99 1020.4 15.9 SSW 16.8 0.0 0.0
22:20 15.3 15.2 99 1020.6 14.5 SE 18.3 0.0 0.0
22:22 15.3 15.2 99 1020.6 9.8 WSW 18.3 0.0 0.0
22:22 15.3 15.2 99 1020.6 9.8 WSW 18.3 0.0 0.0
22:23 15.3 15.2 99 1020.6 10.7 S 18.3 0.0 0.0
22:24 15.3 15.2 99 1020.6 14.5 S 18.3 0.0 0.0
22:25 15.3 15.2 99 1020.5 13.6 S 18.3 0.0 0.0
22:26 15.3 15.2 99 1020.7 8.3 S 18.3 0.0 0.0
22:27 15.3 15.2 99 1020.6 13.0 S 18.3 0.0 0.0
22:28 15.3 15.2 99 1020.6 11.4 S 18.3 0.0 0.0
22:30 15.3 15.2 99 1020.7 10.7 S 14.5 0.0 0.0
22:30 15.3 15.2 99 1020.7 10.7 S 14.5 0.0 0.0
22:31 15.3 15.2 99 1020.5 12.1 S 14.5 0.0 0.0
22:32 15.3 15.2 99 1020.6 9.8 S 14.5 0.0 0.0
22:33 15.3 15.2 99 1020.6 15.2 S 15.2 0.0 0.0
22:34 15.3 15.2 99 1020.5 13.0 S 15.2 0.0 0.0
22:35 15.3 15.2 99 1020.5 9.2 S 15.2 0.0 0.0
22:37 15.3 15.2 99 1020.6 13.0 WSW 15.2 0.0 0.0
22:37 15.3 15.2 99 1020.6 13.0 WSW 15.2 0.0 0.0
22:38 15.3 15.2 99 1020.3 13.6 S 15.2 0.0 0.0
22:39 15.3 15.2 99 1020.5 13.0 WSW 15.2 0.0 0.0
22:40 15.3 15.2 99 1020.6 13.6 SE 15.2 0.0 0.0
22:41 15.3 15.2 99 1020.6 13.6 S 15.2 0.0 0.0
22:42 15.3 15.2 99 1020.6 11.4 NNW 15.2 0.0 0.0
22:44 15.3 15.2 99 1020.6 14.5 S 14.5 0.0 0.0
22:44 15.3 15.2 99 1020.6 14.5 S 14.5 0.0 0.0
22:45 15.3 15.2 99 1020.6 15.2 SE 15.2 0.0 0.0
22:46 15.3 15.2 99 1020.4 16.8 S 16.8 0.0 0.0
22:47 15.3 15.2 99 1020.5 13.0 SE 16.8 0.0 0.0
22:48 15.3 15.2 99 1020.5 13.0 S 16.8 0.0 0.0
22:48 15.3 15.2 99 1020.5 13.0 S 16.8 0.0 0.0
22:50 15.3 15.2 99 1020.6 13.0 S 17.4 0.0 0.0
22:50 15.3 15.2 99 1020.6 13.0 S 17.4 0.0 0.0
22:52 15.3 15.2 99 1020.5 12.1 S 17.4 0.0 0.0
22:53 15.3 15.2 99 1020.4 10.7 S 17.4 0.0 0.0
22:54 15.3 15.2 99 1020.3 13.6 N 17.4 0.0 0.0
22:56 15.3 15.2 99 1020.6 15.9 S 17.4 0.0 0.0
22:56 15.3 15.2 99 1020.6 15.9 S 17.4 0.0 0.0
22:57 15.3 15.2 99 1020.4 14.5 S 17.4 0.0 0.0
22:58 15.4 15.3 99 1020.5 15.9 S 17.4 0.0 0.0
22:59 15.3 15.2 99 1020.5 13.0 S 17.4 0.0 0.0
23:00 15.4 15.3 99 1020.4 13.6 S 16.8 0.0 0.0
23:02 15.3 15.2 99 1020.5 14.5 S 16.8 0.0 0.0
23:02 15.3 15.2 99 1020.5 14.5 S 16.8 0.0 0.0
23:03 15.3 15.2 99 1020.4 14.5 NNW 16.8 0.0 0.0
23:04 15.4 15.3 99 1020.6 13.0 S 16.8 0.0 0.0
23:05 15.4 15.3 99 1020.4 12.1 NW 15.9 0.0 0.0
23:06 15.4 15.3 99 1020.5 15.9 S 15.9 0.0 0.0
23:06 15.4 15.3 99 1020.5 15.9 S 15.9 0.0 0.0
23:08 15.4 15.3 99 1020.5 13.0 SE 15.9 0.0 0.0
23:08 15.4 15.3 99 1020.5 13.0 SE 15.9 0.0 0.0
23:10 15.4 15.3 99 1020.5 15.2 S 15.9 0.0 0.0
23:12 15.4 15.3 99 1020.5 16.8 S 16.8 0.0 0.0
23:12 15.4 15.3 99 1020.5 16.8 S 16.8 0.0 0.0
23:13 15.4 15.3 99 1020.3 13.0 SE 16.8 0.0 0.0
23:13 15.4 15.3 99 1020.3 13.0 SE 16.8 0.0 0.0
23:15 15.4 15.3 99 1020.4 15.9 WSW 16.8 0.0 0.0
23:15 15.4 15.3 99 1020.4 15.9 WSW 16.8 0.0 0.0
23:17 15.4 15.3 99 1020.3 10.7 S 16.8 0.0 0.0
23:18 15.4 15.3 99 1020.3 15.9 S 16.8 0.0 0.0
23:18 15.4 15.3 99 1020.3 15.9 S 16.8 0.0 0.0
23:20 15.4 15.3 99 1020.2 13.0 S 16.8 0.0 0.0
23:20 15.4 15.3 99 1020.2 13.0 S 16.8 0.0 0.0
23:22 15.4 15.3 99 1020.5 12.1 NW 15.9 0.0 0.0
23:22 15.4 15.3 99 1020.5 12.1 NW 15.9 0.0 0.0
23:24 15.4 15.3 99 1020.4 11.4 S 15.9 0.0 0.0
23:25 15.4 15.3 99 1020.5 12.1 S 15.9 0.0 0.0
23:26 15.4 15.3 99 1020.5 12.1 S 15.9 0.0 0.0
23:27 15.4 15.3 99 1020.4 13.6 S 15.9 0.0 0.0
23:28 15.4 15.3 99 1020.4 11.4 NNW 15.9 0.0 0.0
23:29 15.4 15.3 99 1020.4 11.4 S 15.2 0.0 0.0
23:30 15.4 15.3 99 1020.4 15.9 SE 15.9 0.0 0.0
23:32 15.4 15.3 99 1020.4 11.4 SE 15.9 0.0 0.0
23:33 15.4 15.3 99 1020.4 10.7 S 15.9 0.0 0.0
23:34 15.4 15.3 99 1020.5 9.8 S 15.9 0.0 0.0
23:35 15.4 15.3 99 1020.5 15.9 S 15.9 0.0 0.0
23:36 15.4 15.3 99 1020.5 13.0 S 15.9 0.0 0.0
23:37 15.4 15.3 99 1020.5 12.1 S 15.9 0.0 0.0
23:37 15.4 15.3 99 1020.5 12.1 S 15.9 0.0 0.0
23:38 15.4 15.3 99 1020.5 8.3 WSW 15.9 0.0 0.0
23:40 15.4 15.3 99 1020.4 17.4 S 17.4 0.0 0.0
23:41 15.4 15.3 99 1020.5 9.8 S 17.4 0.0 0.0
23:42 15.4 15.3 99 1020.5 13.6 S 17.4 0.0 0.0
23:42 15.4 15.3 99 1020.5 13.6 S 17.4 0.0 0.0
23:44 15.4 15.3 99 1020.4 11.4 S 17.4 0.0 0.0
23:45 15.4 15.3 99 1020.4 9.2 S 17.4 0.0 0.0
23:46 15.4 15.3 99 1020.4 13.6 SE 17.4 0.0 0.0
23:47 15.4 15.3 99 1020.4 11.4 S 17.4 0.0 0.0
23:47 15.4 15.3 99 1020.4 11.4 S 17.4 0.0 0.0
23:49 15.4 15.3 99 1020.2 15.2 S 17.4 0.0 0.0
23:50 15.4 15.3 99 1020.3 9.8 S 15.2 0.0 0.0
23:50 15.4 15.3 99 1020.3 9.8 S 15.2 0.0 0.0
23:51 15.4 15.3 99 1020.4 11.4 WSW 15.2 0.0 0.0
23:53 15.4 15.3 99 1020.6 13.0 S 15.2 0.0 0.0
23:54 15.4 15.3 99 1020.4 10.7 S 15.2 0.0 0.0
23:55 15.4 15.3 99 1020.3 9.2 S 15.2 0.0 0.0
23:56 15.4 15.3 99 1020.4 12.1 S 15.2 0.0 0.0
23:57 15.4 15.3 99 1020.5 13.0 SE 15.2 0.0 0.0
23:57 15.4 15.3 99 1020.5 13.0 SE 15.2 0.0 0.0
23:59 15.4 15.3 99 1020.5 14.5 S 15.2 0.0 0.0
23:59 15.4 15.3 99 1020.5 14.5 S 15.2 0.0 0.0

UK - WEATHER STATION TOPSITES - UK World Weather Websites

This is a private weather station, never base important decisions or events on data from this weather station. Although every effort has been made to make the data as accurate as possible it does not meet MetOffice standards. It is proved as a guide of local weather conditions. We accept no liability for any loss which may arise from use of the data.

Copyright © Carnkie Weather 2009 - 2017.